M I D A S
Marine Information and Data Acquisition System
Tripno 1510 of the Zeeleeuw from 2008-06-25 06:06:34 to 2008-06-25 12:09:04
Back to CruiseResearch ActivitiesStationsMapUnderway DataData graphs

EquipmentUnitsComment
TimeDGPSUTC
LatitudeDGPSDM.mWGS84
LongitudeDGPSDM.mWGS84
TemperatureSBE03/SBE38deg celciusITS90
ConductivitySBE21S/mITS90
SalinitySBE21 Practical Salinity Units
ChlorophylAChelsea fluorimeterg/lCalibrated in Aceton
Missing or incorrect values are displayed as -999
Sea surface data collected by the RV Zeeleeuw from 2008-06-25 06:06:44 to 2008-06-25 12:12:41
                                                                                    Next 1000 lines
Time Latitude Longitude Temperature Conductivity Salinity ChlorophylA
2008-06-25 06:06:54 51°13.625 2°56.044 21.0854 0.01185 0.062813 -1.627401
2008-06-25 06:06:59 51°13.625 2°56.04 21.0884 0.01185 0.062813 -1.627401
2008-06-25 06:07:04 51°13.627 2°56.036 21.0938 0.01185 0.062813 -1.627401
2008-06-25 06:07:09 51°13.628 2°56.031 21.0979 0.01185 0.062813 -1.627401
2008-06-25 06:07:14 51°13.63 2°56.026 21.0961 0.01185 0.062814 -1.662225
2008-06-25 06:07:19 51°13.632 2°56.02 21.0972 0.01185 0.062814 -1.662225
2008-06-25 06:07:24 51°13.635 2°56.013 21.0923 0.01185 0.062814 -1.627401
2008-06-25 06:07:29 51°13.637 2°56.006 21.0946 0.01185 0.062814 -1.627401
2008-06-25 06:07:34 51°13.639 2°55.998 21.0942 0.01185 0.062814 -1.662225
2008-06-25 06:07:39 51°13.642 2°55.99 21.0977 0.01185 0.062814 -1.662225
2008-06-25 06:07:44 51°13.645 2°55.982 21.0963 0.01185 0.062814 -1.627401
2008-06-25 06:07:49 51°13.648 2°55.973 21.097 0.01185 0.062814 -1.627401
2008-06-25 06:07:54 51°13.651 2°55.964 21.0968 0.01185 0.062814 -1.627401
2008-06-25 06:07:59 51°13.654 2°55.955 21.0974 0.01185 0.062814 -1.662225
2008-06-25 06:08:04 51°13.657 2°55.946 21.099 0.01185 0.062814 -1.627401
2008-06-25 06:08:09 51°13.66 2°55.936 21.0975 0.01185 0.062814 -1.627401
2008-06-25 06:08:14 51°13.663 2°55.927 21.0991 0.01185 0.062814 -1.627401
2008-06-25 06:08:19 51°13.666 2°55.917 21.0995 0.01185 0.062814 -1.627401
2008-06-25 06:08:24 51°13.67 2°55.908 21.0995 0.01185 0.062814 -1.627401
2008-06-25 06:08:29 51°13.673 2°55.898 21.1015 0.01185 0.062815 -1.627401
2008-06-25 06:08:34 51°13.677 2°55.888 21.1011 0.01185 0.062815 -1.662225
2008-06-25 06:08:39 51°13.68 2°55.878 21.1008 0.01185 0.062815 -1.627401
2008-06-25 06:08:44 51°13.684 2°55.869 21.1018 0.01185 0.062815 -1.627401
2008-06-25 06:08:49 51°13.688 2°55.859 21.1032 0.01185 0.062815 -1.627401
2008-06-25 06:08:54 51°13.692 2°55.85 21.1036 0.01185 0.062816 -1.627401
2008-06-25 06:08:59 51°13.697 2°55.84 21.1041 0.01185 0.062816 -1.627401
2008-06-25 06:09:04 51°13.701 2°55.83 21.1027 0.01185 0.062816 -1.627401
2008-06-25 06:09:09 51°13.705 2°55.821 21.1026 0.01185 0.062817 -1.627401
2008-06-25 06:09:14 51°13.71 2°55.811 21.1049 0.01185 0.062817 -1.627401
2008-06-25 06:09:19 51°13.714 2°55.802 21.1042 0.01185 0.062817 -1.627401
2008-06-25 06:09:24 51°13.719 2°55.792 21.1049 0.01185 0.062817 -1.662225
2008-06-25 06:09:29 51°13.723 2°55.782 21.1057 0.01185 0.062817 -1.627401
2008-06-25 06:09:34 51°13.728 2°55.772 21.1082 0.01185 0.062817 -1.627401
2008-06-25 06:09:39 51°13.733 2°55.763 21.1071 0.01185 0.062817 -1.627401
2008-06-25 06:09:44 51°13.737 2°55.753 21.1092 0.01185 0.062817 -1.627401
2008-06-25 06:09:49 51°13.742 2°55.744 21.1091 0.01185 0.062817 -1.627401
2008-06-25 06:09:54 51°13.747 2°55.734 21.109 0.01185 0.062817 -1.627401
2008-06-25 06:09:59 51°13.752 2°55.725 21.1102 0.01185 0.062817 -1.627401
2008-06-25 06:10:04 51°13.758 2°55.716 21.1104 0.01185 0.062817 -1.627401
2008-06-25 06:10:09 51°13.763 2°55.708 21.1114 0.01185 0.062818 -1.627401
2008-06-25 06:10:14 51°13.768 2°55.7 21.1113 0.01185 0.062818 -1.627401
2008-06-25 06:10:19 51°13.774 2°55.691 21.1121 0.01185 0.062818 -1.627401
2008-06-25 06:10:24 51°13.78 2°55.684 21.114 0.01185 0.062818 -1.627401
2008-06-25 06:10:29 51°13.785 2°55.676 21.114 0.01185 0.062819 -1.627401
2008-06-25 06:10:34 51°13.792 2°55.669 21.1131 0.01185 0.062819 -1.627401
2008-06-25 06:10:39 51°13.798 2°55.663 21.1149 0.01185 0.062819 -1.662225
2008-06-25 06:10:44 51°13.804 2°55.657 21.1136 0.01185 0.062819 -1.627401
2008-06-25 06:10:49 51°13.811 2°55.651 21.1165 0.01185 0.062819 -1.627401
2008-06-25 06:10:54 51°13.818 2°55.646 21.1166 0.01185 0.06282 -1.662225
2008-06-25 06:10:59 51°13.825 2°55.641 21.1164 0.01185 0.06282 -1.627401
2008-06-25 06:11:04 51°13.832 2°55.637 21.1181 0.01185 0.06282 -1.627401
2008-06-25 06:11:09 51°13.839 2°55.634 21.1176 0.01185 0.06282 -1.627401
2008-06-25 06:11:14 51°13.846 2°55.631 21.1189 0.01185 0.06282 -1.627401
2008-06-25 06:11:19 51°13.853 2°55.629 21.1199 0.01185 0.06282 -1.627401
2008-06-25 06:11:24 51°13.86 2°55.628 21.1196 0.01185 0.062821 -1.627401
2008-06-25 06:11:29 51°13.866 2°55.627 21.1197 0.01185 0.062821 -1.627401
2008-06-25 06:11:34 51°13.873 2°55.628 21.1207 0.01185 0.062821 -1.662225
2008-06-25 06:11:39 51°13.88 2°55.628 21.1203 0.01185 0.062822 -1.627401
2008-06-25 06:11:44 51°13.887 2°55.629 21.1216 0.01185 0.062822 -1.662225
2008-06-25 06:11:49 51°13.893 2°55.631 21.1242 0.01185 0.062822 -1.662225
2008-06-25 06:11:54 51°13.9 2°55.634 21.1226 0.01185 0.062823 -1.627401
2008-06-25 06:11:59 51°13.906 2°55.637 21.1233 0.01185 0.062823 -1.627401
2008-06-25 06:12:04 51°13.912 2°55.641 21.126 0.01185 0.062823 -1.627401
2008-06-25 06:12:09 51°13.918 2°55.646 21.1261 0.01185 0.062823 -1.627401
2008-06-25 06:12:14 51°13.923 2°55.65 21.1263 0.01185 0.062824 -1.662225
2008-06-25 06:12:19 51°13.927 2°55.654 21.1274 0.01185 0.062824 -1.662225
2008-06-25 06:12:24 51°13.932 2°55.658 21.1286 0.01185 0.062824 -1.627401
2008-06-25 06:12:29 51°13.935 2°55.662 21.1282 0.01185 0.062825 -1.627401
2008-06-25 06:12:34 51°13.938 2°55.664 21.1337 0.01185 0.062825 -1.627401
2008-06-25 06:12:39 51°13.939 2°55.665 21.131 0.01185 0.062825 -1.662225
2008-06-25 06:12:44 51°13.939 2°55.664 21.1294 0.01185 0.062825 -1.627401
2008-06-25 06:12:49 51°13.939 2°55.662 21.126 0.01185 0.062825 -1.627401
2008-06-25 06:12:54 51°13.939 2°55.657 21.1259 0.01185 0.062826 -1.662225
2008-06-25 06:12:59 51°13.939 2°55.651 21.0603 0.01185 0.062826 -1.662225
2008-06-25 06:13:04 51°13.94 2°55.644 20.9534 0.01185 0.062826 -1.662225
2008-06-25 06:13:09 51°13.941 2°55.636 20.9612 0.01185 0.062827 -1.627401
2008-06-25 06:13:14 51°13.944 2°55.628 21.0114 0.01185 0.062827 -1.627401
2008-06-25 06:13:19 51°13.947 2°55.619 21.0359 0.01185 0.062827 -1.627401
2008-06-25 06:13:24 51°13.951 2°55.611 21.0526 0.01185 0.062827 -1.627401
2008-06-25 06:13:29 51°13.955 2°55.604 21.0721 0.01185 0.062828 -1.627401
2008-06-25 06:13:34 51°13.96 2°55.595 21.078 0.01185 0.062828 -1.627401
2008-06-25 06:13:39 51°13.966 2°55.586 21.0874 0.01185 0.062828 -1.627401
2008-06-25 06:13:44 51°13.972 2°55.577 21.0906 0.01185 0.062829 -1.627401
2008-06-25 06:13:49 51°13.98 2°55.567 21.0971 0.01185 0.062829 -1.627401
2008-06-25 06:13:54 51°13.988 2°55.557 21.1001 0.01185 0.062829 -1.662225
2008-06-25 06:13:59 51°13.996 2°55.546 21.1026 0.01185 0.062829 -1.662225
2008-06-25 06:14:04 51°14.005 2°55.535 21.1061 0.01185 0.06283 -1.627401
2008-06-25 06:14:09 51°14.015 2°55.525 21.1132 0.01185 0.06283 -1.627401
2008-06-25 06:14:14 51°14.025 2°55.514 21.1107 0.01185 0.06283 -1.627401
2008-06-25 06:14:19 51°14.035 2°55.503 21.1101 0.01185 0.06283 -1.627401
2008-06-25 06:14:24 51°14.046 2°55.493 21.1169 0.01185 0.062831 -1.627401
2008-06-25 06:14:29 51°14.057 2°55.482 21.1175 0.01185 0.062831 -1.627401
2008-06-25 06:14:34 51°14.069 2°55.471 21.1183 0.01185 0.062831 -1.627401
2008-06-25 06:14:39 51°14.08 2°55.461 21.1161 0.01185 0.062832 -1.662225
2008-06-25 06:14:44 51°14.092 2°55.45 21.1138 0.01185 0.062832 -1.662225
2008-06-25 06:14:49 51°14.104 2°55.439 21.1223 0.01185 0.062832 -1.662225
2008-06-25 06:14:54 51°14.117 2°55.429 21.1368 0.01185 0.062832 -1.627401
2008-06-25 06:14:59 51°14.129 2°55.417 21.1279 0.01185 0.062832 -1.662225
2008-06-25 06:15:04 51°14.141 2°55.406 21.1315 0.01185 0.062833 -1.627401
2008-06-25 06:15:09 51°14.153 2°55.393 21.1274 0.01185 0.062833 -1.662225
2008-06-25 06:15:14 51°14.164 2°55.38 21.13 0.01185 0.062833 -1.627401
2008-06-25 06:15:19 51°14.176 2°55.366 21.1258 0.01185 0.062833 -1.627401
2008-06-25 06:15:24 51°14.187 2°55.353 21.1298 0.01185 0.062833 -1.627401
2008-06-25 06:15:29 51°14.199 2°55.339 21.1347 0.01185 0.062833 -1.662225
2008-06-25 06:15:34 51°14.209 2°55.324 21.1305 0.01185 0.062833 -1.627401
2008-06-25 06:15:39 51°14.22 2°55.308 21.1341 0.01185 0.062833 -1.627401
2008-06-25 06:15:44 51°14.231 2°55.293 21.1284 0.01185 0.062833 -1.627401
2008-06-25 06:15:49 51°14.241 2°55.276 21.1324 0.01185 0.062833 -1.627401
2008-06-25 06:15:54 51°14.251 2°55.26 21.1331 0.01185 0.062833 -1.627401
2008-06-25 06:15:59 51°14.262 2°55.242 21.1295 0.01185 0.062834 -1.627401
2008-06-25 06:16:04 51°14.272 2°55.224 21.1292 0.01185 0.062834 -1.627401
2008-06-25 06:16:09 51°14.282 2°55.206 21.1353 0.01185 0.062834 -1.627401
2008-06-25 06:16:14 51°14.293 2°55.188 21.1342 0.01185 0.062834 -1.627401
2008-06-25 06:16:19 51°14.303 2°55.168 21.1101 0.01185 0.062834 -1.627401
2008-06-25 06:16:24 51°14.314 2°55.149 21.1189 0.01185 0.062834 -1.627401
2008-06-25 06:16:29 51°14.324 2°55.13 21.1172 0.01185 0.062834 -1.627401
2008-06-25 06:16:34 51°14.335 2°55.11 21.1178 0.01185 0.062834 -1.627401
2008-06-25 06:16:39 51°14.346 2°55.089 21.1247 0.01185 0.062835 -1.627401
2008-06-25 06:16:44 51°14.356 2°55.069 21.1265 0.01185 0.062835 -1.627401
2008-06-25 06:16:49 51°14.367 2°55.049 21.1377 0.01185 0.062835 -1.627401
2008-06-25 06:16:54 51°14.377 2°55.029 21.1353 0.01185 0.062835 -1.627401
2008-06-25 06:16:59 51°14.388 2°55.008 21.1278 0.01185 0.062835 -1.627401
2008-06-25 06:17:04 51°14.399 2°54.987 21.0778 0.011748 0.062336 -1.627401
2008-06-25 06:17:09 51°14.41 2°54.967 21.0365 0.01185 0.062836 -1.627401
2008-06-25 06:17:14 51°14.421 2°54.947 21.0663 0.01185 0.062836 -1.662225
2008-06-25 06:17:19 51°14.432 2°54.926 21.0753 0.01185 0.062836 -1.662225
2008-06-25 06:17:24 51°14.442 2°54.905 21.0868 0.01185 0.062836 -1.627401
2008-06-25 06:17:29 51°14.453 2°54.883 21.0977 0.01185 0.062836 -1.627401
2008-06-25 06:17:34 51°14.463 2°54.861 21.1102 0.01185 0.062836 -1.627401
2008-06-25 06:17:39 51°14.473 2°54.839 21.1136 0.01185 0.062836 -1.627401
2008-06-25 06:17:44 51°14.482 2°54.816 21.1242 0.01185 0.062836 -1.662225
2008-06-25 06:17:49 51°14.491 2°54.793 21.1068 0.01185 0.062836 -1.662225
2008-06-25 06:17:54 51°14.499 2°54.77 21.0787 0.01185 0.062837 -1.627401
2008-06-25 06:17:59 51°14.507 2°54.747 21.1044 0.01185 0.062836 -1.662225
2008-06-25 06:18:04 51°14.514 2°54.723 21.1053 0.01185 0.062837 -1.627401
2008-06-25 06:18:09 51°14.521 2°54.699 21.0871 0.01185 0.062837 -1.627401
2008-06-25 06:18:14 51°14.527 2°54.675 21.0565 0.01185 0.062837 -1.627401
2008-06-25 06:18:19 51°14.534 2°54.651 21.0333 0.01185 0.062837 -1.627401
2008-06-25 06:18:24 51°14.54 2°54.626 21.0508 0.01185 0.062838 -1.627401
2008-06-25 06:18:29 51°14.547 2°54.602 21.0582 0.01185 0.062838 -1.662225
2008-06-25 06:18:34 51°14.553 2°54.578 21.0773 0.01185 0.062839 -1.627401
2008-06-25 06:18:39 51°14.559 2°54.554 21.0818 0.01185 0.062839 -1.662225
2008-06-25 06:18:44 51°14.565 2°54.53 21.1005 0.01185 0.062839 -1.627401
2008-06-25 06:18:49 51°14.571 2°54.505 21.1041 0.01185 0.062839 -1.627401
2008-06-25 06:18:54 51°14.577 2°54.481 21.1049 0.01185 0.062839 -1.627401
2008-06-25 06:18:59 51°14.583 2°54.456 21.0901 0.01185 0.062839 -1.627401
2008-06-25 06:19:04 51°14.589 2°54.432 21.0456 0.01185 0.06284 -1.627401
2008-06-25 06:19:09 51°14.595 2°54.408 21.0168 0.01185 0.06284 -1.627401
2008-06-25 06:19:14 51°14.602 2°54.384 21.0316 0.01185 0.062841 -1.627401
2008-06-25 06:19:19 51°14.609 2°54.36 21.018 0.01185 0.062841 -1.627401
2008-06-25 06:19:24 51°14.616 2°54.336 21.0438 0.01185 0.062841 -1.627401
2008-06-25 06:19:29 51°14.623 2°54.313 21.0658 0.01185 0.062841 -1.627401
2008-06-25 06:19:34 51°14.631 2°54.289 21.0834 0.01185 0.062841 -1.627401
2008-06-25 06:19:39 51°14.638 2°54.265 21.0179 0.01185 0.062842 -1.627401
2008-06-25 06:19:44 51°14.646 2°54.242 21.0044 0.01185 0.062842 -1.662225
2008-06-25 06:19:49 51°14.653 2°54.218 21.0257 0.01185 0.062842 -1.662225
2008-06-25 06:19:54 51°14.66 2°54.194 21.0128 0.01185 0.062843 -1.627401
2008-06-25 06:19:59 51°14.667 2°54.17 21.0274 0.01185 0.062843 -1.627401
2008-06-25 06:20:04 51°14.675 2°54.146 21.0258 0.01185 0.062843 -1.662225
2008-06-25 06:20:09 51°14.682 2°54.123 21.0643 0.01185 0.062843 -1.627401
2008-06-25 06:20:14 51°14.688 2°54.098 21.0701 0.01185 0.062843 -1.627401
2008-06-25 06:20:19 51°14.694 2°54.074 21.0885 0.01185 0.062843 -1.627401
2008-06-25 06:20:24 51°14.699 2°54.049 21.1005 0.01185 0.062843 -1.627401
2008-06-25 06:20:29 51°14.704 2°54.024 21.1063 0.01185 0.062844 -1.627401
2008-06-25 06:20:34 51°14.708 2°53.999 21.1207 0.01185 0.062844 -1.662225
2008-06-25 06:20:39 51°14.712 2°53.973 21.1268 0.01185 0.062845 -1.627401
2008-06-25 06:20:44 51°14.715 2°53.948 21.1338 0.01185 0.062845 -1.662225
2008-06-25 06:20:49 51°14.716 2°53.923 21.1158 0.01185 0.062845 -1.662225
2008-06-25 06:20:54 51°14.718 2°53.897 21.1425 0.01185 0.062846 -1.627401
2008-06-25 06:20:59 51°14.717 2°53.872 21.0207 0.01185 0.062846 -1.662225
2008-06-25 06:21:04 51°14.719 2°53.847 21.0675 0.01185 0.062846 -1.627401
2008-06-25 06:21:09 51°14.717 2°53.821 20.9973 0.01185 0.062846 -1.627401
2008-06-25 06:21:14 51°14.717 2°53.796 21.0402 0.01185 0.062846 -1.627401
2008-06-25 06:21:19 51°14.716 2°53.77 21.0575 0.01185 0.062846 -1.627401
2008-06-25 06:21:24 51°14.715 2°53.744 21.0441 0.01185 0.062847 -1.627401
2008-06-25 06:21:29 51°14.714 2°53.718 21.0701 0.01185 0.062847 -1.627401
2008-06-25 06:21:34 51°14.713 2°53.693 21.0096 0.01185 0.062848 -1.627401
2008-06-25 06:21:39 51°14.713 2°53.667 21.009 0.01185 0.062848 -1.627401
2008-06-25 06:21:44 51°14.713 2°53.641 21.0286 0.01185 0.062848 -1.662225
2008-06-25 06:21:49 51°14.712 2°53.615 21.0189 0.01185 0.062848 -1.662225
2008-06-25 06:21:54 51°14.713 2°53.588 21.0612 0.01185 0.062849 -1.627401
2008-06-25 06:21:59 51°14.712 2°53.562 21.0063 0.01185 0.062849 -1.627401
2008-06-25 06:22:04 51°14.712 2°53.536 21.0213 0.01185 0.062849 -1.627401
2008-06-25 06:22:09 51°14.713 2°53.51 21.0339 0.01185 0.062849 -1.627401
2008-06-25 06:22:14 51°14.713 2°53.484 21.0498 0.01185 0.062849 -1.627401
2008-06-25 06:22:19 51°14.714 2°53.458 21.0785 0.01185 0.062849 -1.627401
2008-06-25 06:22:24 51°14.715 2°53.432 21.0844 0.01185 0.06285 -1.627401
2008-06-25 06:22:29 51°14.717 2°53.406 21.0979 0.01185 0.06285 -1.627401
2008-06-25 06:22:34 51°14.718 2°53.381 21.1073 0.01185 0.062851 -1.627401
2008-06-25 06:22:39 51°14.72 2°53.355 21.0959 0.01185 0.062851 -1.662225
2008-06-25 06:22:44 51°14.721 2°53.329 21.0506 0.01185 0.062852 -1.627401
2008-06-25 06:22:49 51°14.723 2°53.303 21.0614 0.01185 0.062852 -1.627401
2008-06-25 06:22:54 51°14.724 2°53.277 21.0981 0.01185 0.062852 -1.627401
2008-06-25 06:22:59 51°14.725 2°53.251 21.0274 0.01185 0.062852 -1.627401
2008-06-25 06:23:04 51°14.727 2°53.225 21.0675 0.01185 0.062853 -1.627401
2008-06-25 06:23:09 51°14.729 2°53.199 21.0649 0.01185 0.062853 -1.627401
2008-06-25 06:23:14 51°14.731 2°53.173 21.0468 0.01185 0.062854 -1.627401
2008-06-25 06:23:19 51°14.732 2°53.147 20.9992 0.01185 0.062854 -1.627401
2008-06-25 06:23:24 51°14.735 2°53.121 21.0178 0.01185 0.062855 -1.662225
2008-06-25 06:23:29 51°14.737 2°53.096 21.0439 0.01185 0.062856 -1.627401
2008-06-25 06:23:34 51°14.739 2°53.07 21.0629 0.01185 0.062856 -1.627401
2008-06-25 06:23:39 51°14.742 2°53.044 21.0707 0.01185 0.062856 -1.627401
2008-06-25 06:23:44 51°14.745 2°53.018 21.0862 0.01185 0.062857 -1.627401
2008-06-25 06:23:49 51°14.748 2°52.992 21.06 0.01185 0.062857 -1.627401
2008-06-25 06:23:54 51°14.75 2°52.965 21.0775 0.01185 0.062858 -1.627401
2008-06-25 06:23:59 51°14.753 2°52.939 21.0935 0.01185 0.062858 -1.627401
2008-06-25 06:24:04 51°14.755 2°52.913 21.0907 0.01185 0.062858 -1.627401
2008-06-25 06:24:09 51°14.758 2°52.887 21.0952 0.01185 0.062859 -1.627401
2008-06-25 06:24:14 51°14.76 2°52.861 21.1077 0.01185 0.062859 -1.662225
2008-06-25 06:24:19 51°14.762 2°52.835 21.1127 0.01185 0.062859 -1.662225
2008-06-25 06:24:24 51°14.764 2°52.809 21.1104 0.01185 0.06286 -1.627401
2008-06-25 06:24:29 51°14.766 2°52.783 21.0363 0.01185 0.062861 -1.627401
2008-06-25 06:24:34 51°14.768 2°52.757 21.0552 0.01185 0.062861 -1.627401
2008-06-25 06:24:39 51°14.77 2°52.731 21.0615 0.01185 0.062861 -1.627401
2008-06-25 06:24:44 51°14.772 2°52.705 21.0856 0.01185 0.062862 -1.627401
2008-06-25 06:24:49 51°14.774 2°52.679 21.1148 0.01185 0.062862 -1.627401
2008-06-25 06:24:54 51°14.775 2°52.653 21.0551 0.01185 0.062862 -1.662225
2008-06-25 06:24:59 51°14.777 2°52.627 21.0739 0.01185 0.062863 -1.662225
2008-06-25 06:25:04 51°14.779 2°52.601 21.0565 0.01185 0.062863 -1.627401
2008-06-25 06:25:09 51°14.781 2°52.575 21.0555 0.01185 0.062864 -1.627401
2008-06-25 06:25:14 51°14.783 2°52.549 21.0863 0.01185 0.062865 -1.662225
2008-06-25 06:25:19 51°14.784 2°52.523 21.0976 0.01185 0.062865 -1.662225
2008-06-25 06:25:24 51°14.785 2°52.497 21.0714 0.01185 0.062865 -1.627401
2008-06-25 06:25:29 51°14.786 2°52.471 21.0909 0.01185 0.062865 -1.627401
2008-06-25 06:25:34 51°14.787 2°52.445 21.0995 0.01185 0.062866 -1.627401
2008-06-25 06:25:39 51°14.788 2°52.418 21.0947 0.01185 0.062867 -1.627401
2008-06-25 06:25:44 51°14.788 2°52.392 21.0913 0.01185 0.062867 -1.627401
2008-06-25 06:25:49 51°14.789 2°52.366 21.1118 0.01185 0.062867 -1.627401
2008-06-25 06:25:54 51°14.79 2°52.34 21.122 0.01185 0.062867 -1.627401
2008-06-25 06:25:59 51°14.791 2°52.314 21.1092 0.01185 0.062869 -1.627401
2008-06-25 06:26:04 51°14.792 2°52.287 21.1107 0.01185 0.062869 -1.627401
2008-06-25 06:26:09 51°14.793 2°52.261 21.1228 0.01185 0.062869 -1.627401
2008-06-25 06:26:14 51°14.794 2°52.235 21.0474 0.01185 0.062869 -1.627401
2008-06-25 06:26:19 51°14.795 2°52.208 21.0731 0.01185 0.062869 -1.627401
2008-06-25 06:26:24 51°14.796 2°52.182 21.0864 0.01185 0.06287 -1.662225
2008-06-25 06:26:29 51°14.798 2°52.156 21.1055 0.01185 0.06287 -1.627401
2008-06-25 06:26:34 51°14.799 2°52.129 21.1171 0.01185 0.062871 -1.662225
2008-06-25 06:26:39 51°14.8 2°52.103 21.0934 0.01185 0.062872 -1.627401
2008-06-25 06:26:44 51°14.801 2°52.076 21.1101 0.01185 0.062872 -1.662225
2008-06-25 06:26:49 51°14.802 2°52.05 21.1189 0.01185 0.062872 -1.662225
2008-06-25 06:26:54 51°14.803 2°52.023 21.1196 0.01185 0.062872 -1.627401
2008-06-25 06:26:59 51°14.804 2°51.996 21.1306 0.01185 0.062872 -1.627401
2008-06-25 06:27:04 51°14.805 2°51.97 21.1427 0.01185 0.062873 -1.627401
2008-06-25 06:27:09 51°14.807 2°51.943 21.1428 0.01185 0.062874 -1.627401
2008-06-25 06:27:14 51°14.808 2°51.917 21.155 0.01185 0.062874 -1.662225
2008-06-25 06:27:19 51°14.81 2°51.89 21.1549 0.01185 0.062874 -1.662225
2008-06-25 06:27:24 51°14.811 2°51.864 21.1479 0.01185 0.062874 -1.627401
2008-06-25 06:27:29 51°14.813 2°51.837 21.1565 0.01185 0.062875 -1.627401
2008-06-25 06:27:34 51°14.814 2°51.811 21.1623 0.01185 0.062875 -1.627401
2008-06-25 06:27:39 51°14.816 2°51.784 21.1748 0.01185 0.062875 -1.627401
2008-06-25 06:27:44 51°14.817 2°51.758 21.039 0.01185 0.062876 -1.627401
2008-06-25 06:27:49 51°14.819 2°51.732 21.0739 0.01185 0.062876 -1.627401
2008-06-25 06:27:54 51°14.821 2°51.705 21.0916 0.01185 0.062876 -1.627401
2008-06-25 06:27:59 51°14.823 2°51.679 21.0699 0.01185 0.062877 -1.627401
2008-06-25 06:28:04 51°14.826 2°51.653 21.0827 0.01185 0.062877 -1.627401
2008-06-25 06:28:09 51°14.829 2°51.627 21.0573 0.01185 0.062878 -1.627401
2008-06-25 06:28:14 51°14.831 2°51.6 21.0684 0.01185 0.062878 -1.627401
2008-06-25 06:28:19 51°14.834 2°51.574 21.0997 0.01185 0.062878 -1.627401
2008-06-25 06:28:24 51°14.836 2°51.548 21.108 0.01185 0.062878 -1.662225
2008-06-25 06:28:29 51°14.839 2°51.522 21.127 0.01185 0.062879 -1.627401
2008-06-25 06:28:34 51°14.841 2°51.495 21.1306 0.01185 0.06288 -1.627401
2008-06-25 06:28:39 51°14.844 2°51.469 21.1348 0.01185 0.06288 -1.627401
2008-06-25 06:28:44 51°14.846 2°51.443 21.1291 0.01185 0.062881 -1.627401
2008-06-25 06:28:49 51°14.849 2°51.417 21.0903 0.01185 0.062881 -1.627401
2008-06-25 06:28:54 51°14.851 2°51.391 21.0996 0.01185 0.062882 -1.627401
2008-06-25 06:28:59 51°14.854 2°51.365 21.0864 0.01185 0.062882 -1.662225
2008-06-25 06:29:04 51°14.856 2°51.338 21.1083 0.01185 0.062882 -1.627401
2008-06-25 06:29:09 51°14.859 2°51.312 21.1283 0.01185 0.062882 -1.627401
2008-06-25 06:29:14 51°14.861 2°51.286 21.1332 0.01185 0.062883 -1.662225
2008-06-25 06:29:19 51°14.864 2°51.26 21.0775 0.01185 0.062883 -1.662225
2008-06-25 06:29:24 51°14.866 2°51.234 21.0899 0.01185 0.062883 -1.627401
2008-06-25 06:29:29 51°14.869 2°51.207 21.1062 0.01185 0.062884 -1.662225
2008-06-25 06:29:34 51°14.871 2°51.181 21.1159 0.01185 0.062885 -1.627401
2008-06-25 06:29:39 51°14.874 2°51.155 21.1282 0.01185 0.062885 -1.627401
2008-06-25 06:29:44 51°14.876 2°51.129 21.1374 0.01185 0.062885 -1.627401
2008-06-25 06:29:49 51°14.878 2°51.102 21.1525 0.01185 0.062885 -1.627401
2008-06-25 06:29:54 51°14.881 2°51.076 21.1562 0.01185 0.062885 -1.627401
2008-06-25 06:29:59 51°14.883 2°51.05 21.1601 0.01185 0.062886 -1.627401
2008-06-25 06:30:04 51°14.886 2°51.023 21.169 0.01185 0.062887 -1.627401
2008-06-25 06:30:09 51°14.888 2°50.997 21.1639 0.01185 0.062887 -1.662225
2008-06-25 06:30:14 51°14.89 2°50.971 21.1634 0.01185 0.062888 -1.627401
2008-06-25 06:30:19 51°14.892 2°50.945 21.1796 0.01185 0.062888 -1.627401
2008-06-25 06:30:24 51°14.894 2°50.919 21.171 0.01185 0.062888 -1.627401
2008-06-25 06:30:29 51°14.896 2°50.892 21.1728 0.01185 0.062889 -1.627401
2008-06-25 06:30:34 51°14.898 2°50.866 21.1845 0.01185 0.062889 -1.627401
2008-06-25 06:30:39 51°14.9 2°50.839 21.1572 0.01185 0.062889 -1.627401
2008-06-25 06:30:44 51°14.902 2°50.813 21.1472 0.01185 0.06289 -1.627401
2008-06-25 06:30:49 51°14.904 2°50.787 21.1235 0.01185 0.06289 -1.627401
2008-06-25 06:30:54 51°14.906 2°50.761 21.1261 0.01185 0.062891 -1.662225
2008-06-25 06:30:59 51°14.908 2°50.734 21.1477 0.01185 0.062891 -1.627401
2008-06-25 06:31:04 51°14.91 2°50.708 21.1628 0.01185 0.062891 -1.662225
2008-06-25 06:31:09 51°14.913 2°50.682 21.1732 0.01185 0.062892 -1.627401
2008-06-25 06:31:14 51°14.914 2°50.656 21.167 0.01185 0.062893 -1.627401
2008-06-25 06:31:19 51°14.917 2°50.629 21.1752 0.01185 0.062893 -1.627401
2008-06-25 06:31:24 51°14.919 2°50.603 21.1742 0.01185 0.062893 -1.627401
2008-06-25 06:31:29 51°14.921 2°50.577 21.1481 0.01185 0.062894 -1.662225
2008-06-25 06:31:34 51°14.923 2°50.552 21.1121 0.01185 0.062895 -1.627401
2008-06-25 06:31:39 51°14.925 2°50.526 21.1288 0.01185 0.062895 -1.662225
2008-06-25 06:31:44 51°14.928 2°50.5 21.1458 0.01185 0.062895 -1.627401
2008-06-25 06:31:49 51°14.93 2°50.474 21.1547 0.01185 0.062895 -1.627401
2008-06-25 06:31:54 51°14.932 2°50.447 21.1464 0.01185 0.062895 -1.662225
2008-06-25 06:31:59 51°14.934 2°50.421 21.1029 0.01185 0.062896 -1.627401
2008-06-25 06:32:04 51°14.936 2°50.396 21.1201 0.01185 0.062897 -1.627401
2008-06-25 06:32:09 51°14.938 2°50.369 21.1411 0.01185 0.062898 -1.662225
2008-06-25 06:32:14 51°14.94 2°50.343 21.1563 0.01185 0.062898 -1.662225
2008-06-25 06:32:19 51°14.941 2°50.317 21.1577 0.01185 0.062898 -1.662225
2008-06-25 06:32:24 51°14.942 2°50.291 21.169 0.01185 0.062898 -1.627401
2008-06-25 06:32:29 51°14.943 2°50.265 21.1795 0.01185 0.062898 -1.662225
2008-06-25 06:32:34 51°14.943 2°50.239 21.1424 0.01185 0.0629 -1.627401
2008-06-25 06:32:39 51°14.944 2°50.213 21.1354 0.01185 0.0629 -1.627401
2008-06-25 06:32:44 51°14.945 2°50.187 21.0917 0.01185 0.0629 -1.662225
2008-06-25 06:32:49 51°14.947 2°50.16 21.1324 0.01185 0.0629 -1.662225
2008-06-25 06:32:54 51°14.948 2°50.134 21.1261 0.01185 0.062901 -1.627401
2008-06-25 06:32:59 51°14.949 2°50.108 21.1105 0.01185 0.062901 -1.627401
2008-06-25 06:33:04 51°14.95 2°50.082 21.1187 0.01185 0.062902 -1.627401
2008-06-25 06:33:09 51°14.952 2°50.055 21.1525 0.01185 0.062902 -1.662225
2008-06-25 06:33:14 51°14.953 2°50.029 21.1609 0.01185 0.062903 -1.627401
2008-06-25 06:33:19 51°14.955 2°50.003 21.1537 0.01185 0.062903 -1.627401
2008-06-25 06:33:24 51°14.956 2°49.976 21.062 0.01185 0.062904 -1.627401
2008-06-25 06:33:29 51°14.958 2°49.95 21.0745 0.01185 0.062905 -1.627401
2008-06-25 06:33:34 51°14.959 2°49.923 21.0837 0.01185 0.062905 -1.627401
2008-06-25 06:33:39 51°14.961 2°49.897 21.0801 0.01185 0.062905 -1.627401
2008-06-25 06:33:44 51°14.964 2°49.871 21.1187 0.01185 0.062905 -1.627401
2008-06-25 06:33:49 51°14.966 2°49.844 21.0894 0.01185 0.062905 -1.627401
2008-06-25 06:33:54 51°14.97 2°49.818 21.1317 0.01185 0.062906 -1.627401
2008-06-25 06:33:59 51°14.972 2°49.791 21.0785 0.01185 0.062907 -1.627401
2008-06-25 06:34:04 51°14.974 2°49.764 21.1016 0.01185 0.062908 -1.627401
2008-06-25 06:34:09 51°14.977 2°49.738 21.127 0.01185 0.062908 -1.627401
2008-06-25 06:34:14 51°14.979 2°49.712 21.1438 0.01185 0.062908 -1.627401
2008-06-25 06:34:19 51°14.982 2°49.686 21.168 0.01185 0.062908 -1.627401
2008-06-25 06:34:24 51°14.984 2°49.66 21.1784 0.01185 0.062909 -1.662225
2008-06-25 06:34:29 51°14.986 2°49.634 21.1776 0.01185 0.062909 -1.627401
2008-06-25 06:34:34 51°14.987 2°49.607 21.1753 0.01185 0.06291 -1.627401
2008-06-25 06:34:39 51°14.989 2°49.581 21.1892 0.01185 0.062911 -1.662225
2008-06-25 06:34:44 51°14.99 2°49.555 21.1857 0.01185 0.062911 -1.662225
2008-06-25 06:34:49 51°14.991 2°49.529 21.1922 0.01185 0.062911 -1.662225
2008-06-25 06:34:54 51°14.993 2°49.503 21.1983 0.01185 0.062911 -1.662225
2008-06-25 06:34:59 51°14.994 2°49.477 21.2036 0.01185 0.062912 -1.627401
2008-06-25 06:35:04 51°14.995 2°49.451 21.2083 0.01185 0.062912 -1.627401
2008-06-25 06:35:09 51°14.996 2°49.425 21.1799 0.01185 0.062913 -1.662225
2008-06-25 06:35:14 51°14.997 2°49.399 21.1886 0.01185 0.062914 -1.627401
2008-06-25 06:35:19 51°14.999 2°49.374 21.2062 0.01185 0.062914 -1.627401
2008-06-25 06:35:24 51°15 2°49.347 21.1958 0.01185 0.062914 -1.627401
2008-06-25 06:35:29 51°15.001 2°49.322 21.2059 0.01185 0.062914 -1.627401
2008-06-25 06:35:34 51°15.003 2°49.295 21.2061 0.01185 0.062915 -1.627401
2008-06-25 06:35:39 51°15.004 2°49.269 21.2092 0.01185 0.062916 -1.662225
2008-06-25 06:35:44 51°15.006 2°49.243 21.2106 0.01185 0.062916 -1.627401
2008-06-25 06:35:49 51°15.007 2°49.217 21.2186 0.01185 0.062916 -1.627401
2008-06-25 06:35:54 51°15.008 2°49.191 21.2174 0.01185 0.062916 -1.627401
2008-06-25 06:35:59 51°15.01 2°49.164 21.1785 0.01185 0.062917 -1.662225
2008-06-25 06:36:04 51°15.011 2°49.139 21.1838 0.01185 0.062918 -1.662225
2008-06-25 06:36:09 51°15.013 2°49.112 21.1944 0.01185 0.062918 -1.627401
2008-06-25 06:36:14 51°15.014 2°49.086 21.1323 0.01185 0.062919 -1.627401
2008-06-25 06:36:19 51°15.015 2°49.06 21.1431 0.01185 0.062919 -1.627401
2008-06-25 06:36:24 51°15.017 2°49.034 21.1712 0.01185 0.062919 -1.627401
2008-06-25 06:36:29 51°15.019 2°49.008 21.1867 0.01185 0.06292 -1.627401
2008-06-25 06:36:34 51°15.02 2°48.981 21.1739 0.01185 0.06292 -1.627401
2008-06-25 06:36:39 51°15.022 2°48.955 21.1781 0.01185 0.062921 -1.662225
2008-06-25 06:36:44 51°15.024 2°48.929 21.1906 0.01185 0.062921 -1.627401
2008-06-25 06:36:49 51°15.025 2°48.902 21.2038 0.01185 0.062921 -1.627401
2008-06-25 06:36:54 51°15.027 2°48.876 21.2105 0.01185 0.062921 -1.627401
2008-06-25 06:36:59 51°15.028 2°48.85 21.1328 0.01185 0.062923 -1.627401
2008-06-25 06:37:04 51°15.029 2°48.825 21.1481 0.01185 0.062923 -1.627401
2008-06-25 06:37:09 51°15.03 2°48.798 21.1077 0.01185 0.062924 -1.662225
2008-06-25 06:37:14 51°15.032 2°48.772 21.1406 0.01185 0.062924 -1.662225
2008-06-25 06:37:19 51°15.033 2°48.746 21.1031 0.01185 0.062924 -1.662225
2008-06-25 06:37:24 51°15.035 2°48.72 21.1199 0.01185 0.062925 -1.627401
2008-06-25 06:37:29 51°15.037 2°48.693 21.1434 0.01185 0.062925 -1.627401
2008-06-25 06:37:34 51°15.039 2°48.667 21.1633 0.01185 0.062926 -1.662225
2008-06-25 06:37:39 51°15.04 2°48.641 21.1801 0.01185 0.062927 -1.627401
2008-06-25 06:37:44 51°15.042 2°48.615 21.1341 0.01185 0.062927 -1.627401
2008-06-25 06:37:49 51°15.043 2°48.588 21.1414 0.01185 0.062927 -1.627401
2008-06-25 06:37:54 51°15.045 2°48.562 21.173 0.01185 0.062928 -1.627401
2008-06-25 06:37:59 51°15.046 2°48.536 21.1753 0.01185 0.062928 -1.627401
2008-06-25 06:38:04 51°15.048 2°48.509 21.2041 0.01185 0.062928 -1.627401
2008-06-25 06:38:09 51°15.05 2°48.483 21.2034 0.01185 0.062929 -1.627401
2008-06-25 06:38:14 51°15.052 2°48.456 21.1147 0.01185 0.06293 -1.627401
2008-06-25 06:38:19 51°15.054 2°48.43 21.1465 0.01185 0.06293 -1.627401
2008-06-25 06:38:24 51°15.057 2°48.403 21.1152 0.01185 0.06293 -1.627401
2008-06-25 06:38:29 51°15.06 2°48.377 21.1059 0.01185 0.062931 -1.627401
2008-06-25 06:38:34 51°15.063 2°48.351 21.1365 0.01185 0.062931 -1.662225
2008-06-25 06:38:39 51°15.065 2°48.324 21.1081 0.01185 0.062931 -1.627401
2008-06-25 06:38:44 51°15.069 2°48.298 21.1528 0.01185 0.062932 -1.627401
2008-06-25 06:38:49 51°15.071 2°48.272 21.163 0.01185 0.062932 -1.627401
2008-06-25 06:38:54 51°15.073 2°48.245 21.1845 0.01185 0.062933 -1.627401
2008-06-25 06:38:59 51°15.075 2°48.218 21.1985 0.01185 0.062934 -1.627401
2008-06-25 06:39:04 51°15.076 2°48.192 21.2042 0.01185 0.062934 -1.627401
2008-06-25 06:39:09 51°15.078 2°48.165 21.212 0.01185 0.062934 -1.627401
2008-06-25 06:39:14 51°15.079 2°48.139 21.2236 0.01185 0.062935 -1.627401
2008-06-25 06:39:19 51°15.08 2°48.112 21.1472 0.01185 0.062935 -1.627401
2008-06-25 06:39:24 51°15.081 2°48.086 21.0982 0.01185 0.062936 -1.627401
2008-06-25 06:39:29 51°15.082 2°48.06 21.1316 0.01185 0.062937 -1.627401
2008-06-25 06:39:34 51°15.082 2°48.033 21.1442 0.01185 0.062937 -1.627401
2008-06-25 06:39:39 51°15.083 2°48.007 21.1556 0.01185 0.062937 -1.627401
2008-06-25 06:39:44 51°15.084 2°47.981 21.1509 0.01185 0.062938 -1.627401
2008-06-25 06:39:49 51°15.085 2°47.955 21.0992 0.01185 0.062938 -1.627401
2008-06-25 06:39:54 51°15.087 2°47.928 21.1371 0.01185 0.062939 -1.627401
2008-06-25 06:39:59 51°15.089 2°47.902 21.1508 0.01185 0.062939 -1.627401
2008-06-25 06:40:04 51°15.092 2°47.876 21.1698 0.01185 0.06294 -1.662225
2008-06-25 06:40:09 51°15.094 2°47.85 21.1801 0.01185 0.062941 -1.627401
2008-06-25 06:40:14 51°15.096 2°47.824 21.1678 0.01185 0.062941 -1.627401
2008-06-25 06:40:19 51°15.098 2°47.798 21.1248 0.01185 0.062941 -1.627401
2008-06-25 06:40:24 51°15.101 2°47.772 21.1564 0.01185 0.062941 -1.627401
2008-06-25 06:40:29 51°15.103 2°47.746 21.1688 0.01185 0.062942 -1.627401
2008-06-25 06:40:34 51°15.105 2°47.72 21.187 0.01185 0.062943 -1.627401
2008-06-25 06:40:39 51°15.107 2°47.694 21.1132 0.01185 0.062944 -1.627401
2008-06-25 06:40:44 51°15.109 2°47.667 21.1506 0.01185 0.062944 -1.627401
2008-06-25 06:40:49 51°15.111 2°47.641 21.1107 0.01185 0.062944 -1.627401
2008-06-25 06:40:54 51°15.114 2°47.615 21.1556 0.01185 0.062944 -1.627401
2008-06-25 06:40:59 51°15.116 2°47.589 21.1377 0.01185 0.062945 -1.627401
2008-06-25 06:41:04 51°15.119 2°47.563 21.1771 0.01185 0.062946 -1.662225
2008-06-25 06:41:09 51°15.121 2°47.538 21.1836 0.01185 0.062947 -1.662225
2008-06-25 06:41:14 51°15.123 2°47.512 21.1947 0.01185 0.062947 -1.627401
2008-06-25 06:41:19 51°15.126 2°47.486 21.215 0.01185 0.062947 -1.627401
2008-06-25 06:41:24 51°15.128 2°47.46 21.2261 0.01185 0.062948 -1.627401
2008-06-25 06:41:29 51°15.13 2°47.433 21.2292 0.01185 0.062949 -1.662225
2008-06-25 06:41:34 51°15.133 2°47.407 21.2363 0.01185 0.062949 -1.627401
2008-06-25 06:41:39 51°15.135 2°47.381 21.2054 0.01185 0.06295 -1.627401
2008-06-25 06:41:44 51°15.137 2°47.355 21.1359 0.01185 0.062951 -1.627401
2008-06-25 06:41:49 51°15.139 2°47.329 21.1222 0.01185 0.062951 -1.627401
2008-06-25 06:41:54 51°15.142 2°47.303 21.1632 0.01185 0.062951 -1.627401
2008-06-25 06:41:59 51°15.144 2°47.277 21.143 0.01185 0.062951 -1.627401
2008-06-25 06:42:04 51°15.146 2°47.25 21.1854 0.01185 0.062953 -1.627401
2008-06-25 06:42:09 51°15.148 2°47.224 21.1849 0.01185 0.062954 -1.627401
2008-06-25 06:42:14 51°15.15 2°47.198 21.2161 0.01185 0.062954 -1.627401
2008-06-25 06:42:19 51°15.152 2°47.172 21.2267 0.01185 0.062954 -1.627401
2008-06-25 06:42:24 51°15.154 2°47.145 21.2509 0.01185 0.062954 -1.627401
2008-06-25 06:42:29 51°15.156 2°47.119 21.2376 0.01185 0.062955 -1.627401
2008-06-25 06:42:34 51°15.157 2°47.092 21.1201 0.01185 0.062956 -1.627401
2008-06-25 06:42:39 51°15.158 2°47.066 21.1629 0.01185 0.062956 -1.627401
2008-06-25 06:42:44 51°15.159 2°47.04 21.1747 0.01185 0.062957 -1.627401
2008-06-25 06:42:49 51°15.16 2°47.014 21.1941 0.01185 0.062957 -1.627401
2008-06-25 06:42:54 51°15.161 2°46.987 21.2122 0.01185 0.062957 -1.662225
2008-06-25 06:42:59 51°15.161 2°46.961 21.2152 0.01185 0.062957 -1.662225
2008-06-25 06:43:04 51°15.163 2°46.935 21.2363 0.01185 0.062959 -1.627401
2008-06-25 06:43:09 51°15.163 2°46.908 21.1445 0.01185 0.062959 -1.627401
2008-06-25 06:43:14 51°15.165 2°46.882 21.1862 0.01185 0.06296 -1.662225
2008-06-25 06:43:19 51°15.166 2°46.855 21.1925 0.01185 0.06296 -1.662225
2008-06-25 06:43:24 51°15.168 2°46.829 21.144 0.01185 0.06296 -1.627401
2008-06-25 06:43:29 51°15.168 2°46.802 21.1564 0.01185 0.062961 -1.627401
2008-06-25 06:43:34 51°15.17 2°46.775 21.185 0.01185 0.062961 -1.627401
2008-06-25 06:43:39 51°15.171 2°46.749 21.2003 0.01185 0.062962 -1.662225
2008-06-25 06:43:44 51°15.172 2°46.722 21.2128 0.01185 0.062962 -1.662225
2008-06-25 06:43:49 51°15.173 2°46.696 21.224 0.01185 0.062962 -1.662225
2008-06-25 06:43:54 51°15.174 2°46.669 21.2234 0.01185 0.062963 -1.627401
2008-06-25 06:43:59 51°15.175 2°46.643 21.2325 0.01185 0.062964 -1.627401
2008-06-25 06:44:04 51°15.176 2°46.617 21.2383 0.01185 0.062964 -1.627401
2008-06-25 06:44:09 51°15.178 2°46.59 21.2432 0.01185 0.062964 -1.627401
2008-06-25 06:44:14 51°15.179 2°46.563 21.2441 0.01185 0.062964 -1.627401
2008-06-25 06:44:19 51°15.18 2°46.537 21.2668 0.01185 0.062964 -1.627401
2008-06-25 06:44:24 51°15.182 2°46.511 21.141 0.01185 0.062965 -1.627401
2008-06-25 06:44:29 51°15.183 2°46.484 21.1704 0.01185 0.062966 -1.627401
2008-06-25 06:44:34 51°15.184 2°46.457 21.1835 0.01185 0.062966 -1.627401
2008-06-25 06:44:39 51°15.185 2°46.431 21.1851 0.01185 0.062966 -1.627401
2008-06-25 06:44:44 51°15.187 2°46.404 21.2003 0.01185 0.062967 -1.627401
2008-06-25 06:44:49 51°15.188 2°46.378 21.2192 0.01185 0.062967 -1.627401
2008-06-25 06:44:54 51°15.19 2°46.351 21.2379 0.01185 0.062967 -1.627401
2008-06-25 06:44:59 51°15.191 2°46.324 21.2335 0.01185 0.062967 -1.627401
2008-06-25 06:45:04 51°15.193 2°46.298 21.2315 0.01185 0.062969 -1.627401
2008-06-25 06:45:09 51°15.194 2°46.271 21.1549 0.01185 0.062969 -1.627401
2008-06-25 06:45:14 51°15.196 2°46.245 21.1691 0.01185 0.06297 -1.627401
2008-06-25 06:45:19 51°15.197 2°46.218 21.1274 0.01185 0.06297 -1.627401
2008-06-25 06:45:24 51°15.199 2°46.192 21.1775 0.01185 0.062971 -1.662225
2008-06-25 06:45:29 51°15.201 2°46.165 21.1639 0.01185 0.062971 -1.627401
2008-06-25 06:45:34 51°15.204 2°46.139 21.1511 0.01185 0.062971 -1.627401
2008-06-25 06:45:39 51°15.206 2°46.112 21.1459 0.01185 0.062971 -1.627401
2008-06-25 06:45:44 51°15.208 2°46.086 21.1789 0.01185 0.062973 -1.627401
2008-06-25 06:45:49 51°15.211 2°46.059 21.1949 0.01185 0.062973 -1.627401
2008-06-25 06:45:54 51°15.213 2°46.033 21.1949 0.01185 0.062974 -1.627401
2008-06-25 06:45:59 51°15.216 2°46.007 21.2339 0.01185 0.062974 -1.627401
2008-06-25 06:46:04 51°15.218 2°45.98 21.1515 0.01185 0.062974 -1.627401
2008-06-25 06:46:09 51°15.221 2°45.954 21.1859 0.01185 0.062975 -1.627401
2008-06-25 06:46:14 51°15.223 2°45.928 21.2002 0.01185 0.062975 -1.627401
2008-06-25 06:46:19 51°15.225 2°45.901 21.1559 0.01185 0.062975 -1.627401
2008-06-25 06:46:24 51°15.227 2°45.875 21.1604 0.01185 0.062976 -1.627401
2008-06-25 06:46:29 51°15.229 2°45.848 21.1918 0.01185 0.062976 -1.627401
2008-06-25 06:46:34 51°15.231 2°45.822 21.1703 0.01185 0.062977 -1.627401
2008-06-25 06:46:39 51°15.234 2°45.795 21.2054 0.01185 0.062977 -1.627401
2008-06-25 06:46:44 51°15.235 2°45.769 21.2224 0.01185 0.062978 -1.627401
2008-06-25 06:46:49 51°15.237 2°45.743 21.1336 0.01185 0.062978 -1.627401
2008-06-25 06:46:54 51°15.239 2°45.716 21.1778 0.01185 0.062979 -1.627401
2008-06-25 06:46:59 51°15.24 2°45.69 21.1377 0.01185 0.062979 -1.627401
2008-06-25 06:47:04 51°15.242 2°45.664 21.1739 0.01185 0.06298 -1.627401
2008-06-25 06:47:09 51°15.243 2°45.637 21.1888 0.01185 0.062981 -1.662225
2008-06-25 06:47:14 51°15.245 2°45.611 21.1976 0.01185 0.062981 -1.627401
2008-06-25 06:47:19 51°15.247 2°45.584 21.2194 0.01185 0.062981 -1.627401
2008-06-25 06:47:24 51°15.249 2°45.558 21.2323 0.01185 0.062981 -1.627401
2008-06-25 06:47:29 51°15.251 2°45.531 21.2363 0.01185 0.062982 -1.662225
2008-06-25 06:47:34 51°15.253 2°45.505 21.2435 0.01185 0.062983 -1.627401
2008-06-25 06:47:39 51°15.255 2°45.479 21.1589 0.01185 0.062983 -1.627401
2008-06-25 06:47:44 51°15.258 2°45.453 21.208 0.01185 0.062983 -1.627401
2008-06-25 06:47:49 51°15.259 2°45.427 21.1376 0.01185 0.062983 -1.627401
2008-06-25 06:47:54 51°15.262 2°45.401 21.191 0.01185 0.062984 -1.627401
2008-06-25 06:47:59 51°15.264 2°45.374 21.1703 0.01185 0.062984 -1.627401
2008-06-25 06:48:04 51°15.266 2°45.348 21.1704 0.01185 0.062986 -1.627401
2008-06-25 06:48:09 51°15.269 2°45.322 21.1982 0.01185 0.062986 -1.627401
2008-06-25 06:48:14 51°15.27 2°45.296 21.2049 0.01185 0.062987 -1.627401
2008-06-25 06:48:19 51°15.272 2°45.269 21.2383 0.01185 0.062987 -1.627401
2008-06-25 06:48:24 51°15.274 2°45.243 21.1901 0.01185 0.062987 -1.627401
2008-06-25 06:48:29 51°15.277 2°45.217 21.2069 0.01185 0.062988 -1.627401
2008-06-25 06:48:34 51°15.279 2°45.191 21.2187 0.01185 0.062989 -1.627401
2008-06-25 06:48:39 51°15.28 2°45.164 21.2348 0.01185 0.06299 -1.627401
2008-06-25 06:48:44 51°15.282 2°45.138 21.2482 0.01185 0.062991 -1.627401
2008-06-25 06:48:49 51°15.283 2°45.112 21.191 0.01185 0.062991 -1.627401
2008-06-25 06:48:54 51°15.285 2°45.086 21.2263 0.01185 0.062991 -1.627401
2008-06-25 06:48:59 51°15.286 2°45.059 21.1562 0.01185 0.062992 -1.627401
2008-06-25 06:49:04 51°15.288 2°45.033 21.2084 0.01185 0.062993 -1.627401
2008-06-25 06:49:09 51°15.288 2°45.007 21.1641 0.01185 0.062994 -1.627401
2008-06-25 06:49:14 51°15.29 2°44.98 21.2077 0.01185 0.062994 -1.627401
2008-06-25 06:49:19 51°15.291 2°44.954 21.215 0.01185 0.062994 -1.627401
2008-06-25 06:49:24 51°15.292 2°44.928 21.1908 0.01185 0.062995 -1.627401
2008-06-25 06:49:29 51°15.293 2°44.901 21.1562 0.01185 0.062995 -1.627401
2008-06-25 06:49:34 51°15.295 2°44.875 21.1892 0.01185 0.062996 -1.627401
2008-06-25 06:49:39 51°15.296 2°44.849 21.1643 0.01185 0.062997 -1.662225
2008-06-25 06:49:44 51°15.298 2°44.823 21.1745 0.01185 0.062997 -1.662225
2008-06-25 06:49:49 51°15.3 2°44.797 21.1959 0.01185 0.062997 -1.662225
2008-06-25 06:49:54 51°15.302 2°44.771 21.1703 0.01185 0.062998 -1.627401
2008-06-25 06:49:59 51°15.305 2°44.744 21.1754 0.01185 0.062999 -1.627401
2008-06-25 06:50:04 51°15.307 2°44.718 21.1714 0.01185 0.063 -1.627401
2008-06-25 06:50:09 51°15.309 2°44.692 21.1826 0.01185 0.063001 -1.627401
2008-06-25 06:50:14 51°15.311 2°44.665 21.1769 0.01185 0.063001 -1.627401
2008-06-25 06:50:19 51°15.314 2°44.639 21.1689 0.01185 0.063001 -1.627401
2008-06-25 06:50:24 51°15.316 2°44.613 21.1621 0.01185 0.063002 -1.627401
2008-06-25 06:50:29 51°15.318 2°44.587 21.1775 0.01185 0.063002 -1.627401
2008-06-25 06:50:34 51°15.321 2°44.561 21.2066 0.01185 0.063004 -1.627401
2008-06-25 06:50:39 51°15.323 2°44.534 21.2133 0.01185 0.063004 -1.627401
2008-06-25 06:50:44 51°15.325 2°44.508 21.2497 0.01185 0.063005 -1.627401
2008-06-25 06:50:49 51°15.326 2°44.482 21.1786 0.01185 0.063005 -1.627401
2008-06-25 06:50:54 51°15.328 2°44.456 21.1966 0.01185 0.063007 -1.627401
2008-06-25 06:50:59 51°15.33 2°44.43 21.1805 0.01185 0.063008 -1.627401
2008-06-25 06:51:04 51°15.331 2°44.403 21.1782 0.01185 0.063008 -1.627401
2008-06-25 06:51:09 51°15.333 2°44.378 21.1947 0.01185 0.063009 -1.627401
2008-06-25 06:51:14 51°15.334 2°44.351 21.1792 0.01185 0.06301 -1.627401
2008-06-25 06:51:19 51°15.336 2°44.325 21.2022 0.01185 0.06301 -1.627401
2008-06-25 06:51:24 51°15.338 2°44.3 21.1813 0.01185 0.063011 -1.627401
2008-06-25 06:51:29 51°15.339 2°44.273 21.1587 0.01185 0.063011 -1.627401
2008-06-25 06:51:34 51°15.341 2°44.247 21.1936 0.01185 0.063013 -1.627401
2008-06-25 06:51:39 51°15.343 2°44.221 21.2048 0.01185 0.063013 -1.627401
2008-06-25 06:51:44 51°15.345 2°44.195 21.1835 0.01185 0.063014 -1.627401
2008-06-25 06:51:49 51°15.348 2°44.169 21.2235 0.01185 0.063014 -1.627401
2008-06-25 06:51:54 51°15.35 2°44.143 21.1898 0.01185 0.063015 -1.627401
2008-06-25 06:51:59 51°15.352 2°44.117 21.2139 0.01185 0.063016 -1.627401
2008-06-25 06:52:04 51°15.354 2°44.091 21.219 0.01185 0.063018 -1.627401
2008-06-25 06:52:09 51°15.357 2°44.065 21.2035 0.01185 0.063018 -1.627401
2008-06-25 06:52:14 51°15.359 2°44.039 21.1817 0.01185 0.063019 -1.662225
2008-06-25 06:52:19 51°15.362 2°44.013 21.182 0.01185 0.063019 -1.662225
2008-06-25 06:52:24 51°15.364 2°43.987 21.1859 0.01185 0.063021 -1.627401
2008-06-25 06:52:29 51°15.367 2°43.961 21.186 0.01185 0.063021 -1.627401
2008-06-25 06:52:34 51°15.369 2°43.935 21.2101 0.01185 0.063022 -1.627401
2008-06-25 06:52:39 51°15.371 2°43.91 21.2378 0.01185 0.063024 -1.627401
2008-06-25 06:52:44 51°15.373 2°43.884 21.2007 0.01185 0.063025 -1.662225
2008-06-25 06:52:49 51°15.375 2°43.857 21.2117 0.01185 0.063025 -1.662225
2008-06-25 06:52:54 51°15.377 2°43.831 21.2123 0.01185 0.063026 -1.627401
2008-06-25 06:52:59 51°15.378 2°43.805 21.2226 0.01185 0.063027 -1.627401
2008-06-25 06:53:04 51°15.38 2°43.78 21.1775 0.01185 0.063028 -1.627401
2008-06-25 06:53:09 51°15.382 2°43.754 21.2035 0.01185 0.063029 -1.662225
2008-06-25 06:53:14 51°15.383 2°43.727 21.1991 0.01185 0.06303 -1.627401
2008-06-25 06:53:19 51°15.385 2°43.702 21.239 0.01185 0.06303 -1.627401
2008-06-25 06:53:24 51°15.386 2°43.676 21.1832 0.01185 0.063031 -1.627401
2008-06-25 06:53:29 51°15.389 2°43.65 21.2203 0.01185 0.063032 -1.662225
2008-06-25 06:53:34 51°15.39 2°43.623 21.2282 0.01185 0.063034 -1.627401
2008-06-25 06:53:39 51°15.392 2°43.598 21.23 0.01185 0.063035 -1.627401
2008-06-25 06:53:44 51°15.394 2°43.572 21.2426 0.01185 0.063036 -1.627401
2008-06-25 06:53:49 51°15.396 2°43.546 21.2184 0.01185 0.063036 -1.627401
2008-06-25 06:53:54 51°15.397 2°43.52 21.2314 0.01185 0.063037 -1.662225
2008-06-25 06:53:59 51°15.399 2°43.494 21.2429 0.01185 0.063038 -1.627401
2008-06-25 06:54:04 51°15.4 2°43.468 21.1975 0.01185 0.063039 -1.627401
2008-06-25 06:54:09 51°15.402 2°43.442 21.2178 0.01185 0.06304 -1.627401
2008-06-25 06:54:14 51°15.404 2°43.416 21.185 0.01185 0.063041 -1.627401
2008-06-25 06:54:19 51°15.406 2°43.39 21.2088 0.01185 0.063041 -1.627401
2008-06-25 06:54:24 51°15.408 2°43.363 21.1891 0.01185 0.063042 -1.627401
2008-06-25 06:54:29 51°15.411 2°43.337 21.2152 0.01185 0.063044 -1.627401
2008-06-25 06:54:34 51°15.413 2°43.311 21.2247 0.01185 0.063044 -1.627401
2008-06-25 06:54:39 51°15.415 2°43.285 21.1875 0.01185 0.063046 -1.627401
2008-06-25 06:54:44 51°15.418 2°43.259 21.2256 0.01185 0.063047 -1.627401
2008-06-25 06:54:49 51°15.42 2°43.233 21.2408 0.01185 0.063047 -1.627401
2008-06-25 06:54:54 51°15.422 2°43.207 21.2657 0.01185 0.063048 -1.627401
2008-06-25 06:54:59 51°15.425 2°43.181 21.2664 0.01185 0.063049 -1.627401
2008-06-25 06:55:04 51°15.427 2°43.154 21.2301 0.01185 0.06305 -1.627401
2008-06-25 06:55:09 51°15.429 2°43.128 21.261 0.01185 0.063051 -1.627401
2008-06-25 06:55:14 51°15.432 2°43.102 21.2699 0.01185 0.063052 -1.627401
2008-06-25 06:55:19 51°15.433 2°43.076 21.2721 0.01185 0.063052 -1.627401
2008-06-25 06:55:24 51°15.435 2°43.049 21.2898 0.01185 0.063053 -1.627401
2008-06-25 06:55:29 51°15.436 2°43.023 21.2891 0.01185 0.063055 -1.627401
2008-06-25 06:55:34 51°15.438 2°42.996 21.3058 0.01185 0.063055 -1.627401
2008-06-25 06:55:39 51°15.439 2°42.969 21.3026 0.01185 0.063057 -1.627401
2008-06-25 06:55:44 51°15.441 2°42.942 21.3175 0.01185 0.063058 -1.627401
2008-06-25 06:55:49 51°15.442 2°42.916 21.2613 0.01185 0.063058 -1.627401
2008-06-25 06:55:54 51°15.443 2°42.89 21.2735 0.01185 0.063059 -1.627401
2008-06-25 06:55:59 51°15.445 2°42.863 21.2875 0.01185 0.06306 -1.627401
2008-06-25 06:56:04 51°15.447 2°42.837 21.3008 0.01185 0.063062 -1.627401
2008-06-25 06:56:09 51°15.447 2°42.81 21.2089 0.01185 0.063062 -1.627401
2008-06-25 06:56:14 51°15.45 2°42.783 21.2302 0.01185 0.063064 -1.627401
2008-06-25 06:56:19 51°15.45 2°42.757 21.1979 0.01185 0.063064 -1.627401
2008-06-25 06:56:24 51°15.453 2°42.731 21.2141 0.01185 0.063065 -1.627401
2008-06-25 06:56:29 51°15.454 2°42.704 21.2026 0.01185 0.063066 -1.627401
2008-06-25 06:56:34 51°15.457 2°42.677 21.2168 0.01185 0.063067 -1.627401
2008-06-25 06:56:39 51°15.459 2°42.651 21.2532 0.01185 0.063069 -1.627401
2008-06-25 06:56:44 51°15.461 2°42.625 21.2737 0.01185 0.063069 -1.627401
2008-06-25 06:56:49 51°15.463 2°42.598 21.2614 0.01185 0.063069 -1.627401
2008-06-25 06:56:54 51°15.465 2°42.572 21.245 0.01185 0.063071 -1.627401
2008-06-25 06:56:59 51°15.467 2°42.546 21.2435 0.01185 0.063072 -1.627401
2008-06-25 06:57:04 51°15.468 2°42.519 21.2547 0.01185 0.063073 -1.627401
2008-06-25 06:57:09 51°15.47 2°42.493 21.2252 0.01185 0.063075 -1.627401
2008-06-25 06:57:14 51°15.471 2°42.467 21.2442 0.01185 0.063075 -1.627401
2008-06-25 06:57:19 51°15.473 2°42.44 21.2356 0.01185 0.063075 -1.627401
2008-06-25 06:57:24 51°15.474 2°42.414 21.2282 0.01185 0.063076 -1.627401
2008-06-25 06:57:29 51°15.476 2°42.388 21.2579 0.01185 0.063078 -1.662225
2008-06-25 06:57:34 51°15.477 2°42.362 21.2639 0.01185 0.063079 -1.627401
2008-06-25 06:57:39 51°15.48 2°42.335 21.2562 0.01185 0.06308 -1.627401
2008-06-25 06:57:44 51°15.481 2°42.309 21.2217 0.01185 0.063081 -1.627401
2008-06-25 06:57:49 51°15.483 2°42.282 21.2658 0.01185 0.063081 -1.627401
2008-06-25 06:57:54 51°15.485 2°42.256 21.2205 0.01185 0.063082 -1.627401
2008-06-25 06:57:59 51°15.488 2°42.23 21.2507 0.01185 0.063082 -1.627401
2008-06-25 06:58:04 51°15.49 2°42.203 21.2132 0.01185 0.063084 -1.627401
2008-06-25 06:58:09 51°15.493 2°42.177 21.2423 0.01185 0.063085 -1.627401
2008-06-25 06:58:14 51°15.495 2°42.151 21.2616 0.01185 0.063086 -1.627401
2008-06-25 06:58:19 51°15.498 2°42.124 21.2851 0.01185 0.063086 -1.627401
2008-06-25 06:58:24 51°15.5 2°42.098 21.2846 0.01185 0.063087 -1.627401
2008-06-25 06:58:29 51°15.502 2°42.072 21.3265 0.011748 0.062586 -1.627401
2008-06-25 06:58:34 51°15.503 2°42.045 21.1927 0.01185 0.063089 -1.627401
2008-06-25 06:58:39 51°15.506 2°42.02 21.2595 0.01185 0.063089 -1.627401
2008-06-25 06:58:44 51°15.507 2°41.994 21.1857 0.011748 0.062592 -1.627401
2008-06-25 06:58:49 51°15.509 2°41.968 21.2596 0.011748 0.062592 -1.627401
2008-06-25 06:58:54 51°15.51 2°41.942 21.2162 0.011748 0.062591 -1.627401
2008-06-25 06:58:59 51°15.511 2°41.915 21.2419 0.011748 0.062594 -1.627401
2008-06-25 06:59:04 51°15.513 2°41.889 21.2593 0.011748 0.062593 -1.627401
2008-06-25 06:59:09 51°15.514 2°41.863 21.2536 0.011748 0.062596 -1.627401
2008-06-25 06:59:14 51°15.515 2°41.837 21.1854 0.011748 0.062596 -1.627401
2008-06-25 06:59:19 51°15.517 2°41.811 21.2165 0.011748 0.062596 -1.627401
2008-06-25 06:59:24 51°15.52 2°41.785 21.2152 0.01185 0.063097 -1.627401
2008-06-25 06:59:29 51°15.524 2°41.759 21.2427 0.011748 0.062596 -1.627401
2008-06-25 06:59:34 51°15.528 2°41.733 21.2144 0.01185 0.063098 -1.627401
2008-06-25 06:59:39 51°15.534 2°41.707 21.2435 0.011748 0.062597 -1.627401
2008-06-25 06:59:44 51°15.539 2°41.681 21.2066 0.011748 0.062599 -1.627401
2008-06-25 06:59:49 51°15.546 2°41.657 21.2451 0.011748 0.062599 -1.627401
2008-06-25 06:59:54 51°15.553 2°41.632 21.2225 0.011748 0.062598 -1.627401
2008-06-25 06:59:59 51°15.562 2°41.609 21.2523 0.011748 0.062599 -1.627401
2008-06-25 07:00:04 51°15.57 2°41.585 21.2445 0.011748 0.0626 -1.627401
2008-06-25 07:00:09 51°15.58 2°41.562 21.242 0.011748 0.062601 -1.627401
2008-06-25 07:00:14 51°15.589 2°41.539 21.2504 0.011748 0.062602 -1.627401
2008-06-25 07:00:19 51°15.598 2°41.517 21.2416 0.011748 0.062602 -1.627401
2008-06-25 07:00:24 51°15.608 2°41.494 21.2145 0.011748 0.062603 -1.627401
2008-06-25 07:00:29 51°15.618 2°41.472 21.2411 0.011748 0.062604 -1.627401
2008-06-25 07:00:34 51°15.628 2°41.45 21.2225 0.011748 0.062605 -1.627401
2008-06-25 07:00:39 51°15.638 2°41.427 21.2293 0.011748 0.062605 -1.627401
2008-06-25 07:00:44 51°15.648 2°41.405 21.2558 0.011748 0.062606 -1.627401
2008-06-25 07:00:49 51°15.657 2°41.381 21.233 0.011748 0.062606 -1.627401
2008-06-25 07:00:54 51°15.667 2°41.359 21.2283 0.011748 0.062607 -1.627401
2008-06-25 07:00:59 51°15.676 2°41.336 21.2326 0.011748 0.062608 -1.627401
2008-06-25 07:01:04 51°15.686 2°41.312 21.2504 0.011748 0.062609 -1.627401
2008-06-25 07:01:09 51°15.695 2°41.289 21.2684 0.011748 0.062609 -1.627401
2008-06-25 07:01:14 51°15.704 2°41.266 21.2321 0.011748 0.06261 -1.627401
2008-06-25 07:01:19 51°15.714 2°41.243 21.2647 0.011748 0.06261 -1.627401
2008-06-25 07:01:24 51°15.723 2°41.219 21.2763 0.011748 0.06261 -1.627401
2008-06-25 07:01:29 51°15.732 2°41.196 21.2675 0.011748 0.062612 -1.662225
2008-06-25 07:01:34 51°15.741 2°41.172 21.2724 0.011748 0.062612 -1.627401
2008-06-25 07:01:39 51°15.75 2°41.149 21.2635 0.011748 0.062612 -1.627401
2008-06-25 07:01:44 51°15.759 2°41.126 21.2776 0.011748 0.062613 -1.627401
2008-06-25 07:01:49 51°15.769 2°41.102 21.301 0.011748 0.062613 -1.627401
2008-06-25 07:01:54 51°15.777 2°41.079 21.2888 0.011748 0.062613 -1.627401
2008-06-25 07:01:59 51°15.786 2°41.055 21.2464 0.011748 0.062615 -1.627401
2008-06-25 07:02:04 51°15.795 2°41.031 21.2311 0.011748 0.062615 -1.627401
2008-06-25 07:02:09 51°15.804 2°41.008 21.2623 0.011748 0.062615 -1.627401
2008-06-25 07:02:14 51°15.813 2°40.984 21.2531 0.011748 0.062615 -1.627401
2008-06-25 07:02:19 51°15.823 2°40.961 21.2351 0.011748 0.062615 -1.627401
2008-06-25 07:02:24 51°15.832 2°40.937 21.2573 0.011748 0.062617 -1.627401
2008-06-25 07:02:29 51°15.841 2°40.914 21.2772 0.011748 0.062618 -1.627401
2008-06-25 07:02:34 51°15.85 2°40.89 21.3027 0.011748 0.062619 -1.627401
2008-06-25 07:02:39 51°15.858 2°40.866 21.2433 0.011748 0.062619 -1.627401
2008-06-25 07:02:44 51°15.867 2°40.842 21.2493 0.011748 0.06262 -1.627401
2008-06-25 07:02:49 51°15.875 2°40.818 21.279 0.011748 0.06262 -1.627401
2008-06-25 07:02:54 51°15.883 2°40.794 21.2436 0.011748 0.062621 -1.627401
2008-06-25 07:02:59 51°15.892 2°40.77 21.2621 0.011748 0.062621 -1.627401
2008-06-25 07:03:04 51°15.901 2°40.746 21.271 0.011748 0.062622 -1.627401
2008-06-25 07:03:09 51°15.909 2°40.723 21.2474 0.011748 0.062622 -1.627401
2008-06-25 07:03:14 51°15.918 2°40.699 21.2447 0.011748 0.062623 -1.627401
2008-06-25 07:03:19 51°15.927 2°40.675 21.272 0.011748 0.062623 -1.627401
2008-06-25 07:03:24 51°15.936 2°40.651 21.2914 0.011748 0.062623 -1.627401
2008-06-25 07:03:29 51°15.944 2°40.628 21.2826 0.011748 0.062624 -1.627401
2008-06-25 07:03:34 51°15.953 2°40.604 21.2623 0.011748 0.062624 -1.627401
2008-06-25 07:03:39 51°15.961 2°40.58 21.2857 0.011748 0.062625 -1.627401
2008-06-25 07:03:44 51°15.97 2°40.557 21.3196 0.011748 0.062626 -1.627401
2008-06-25 07:03:49 51°15.977 2°40.533 21.2606 0.011748 0.062626 -1.627401
2008-06-25 07:03:54 51°15.985 2°40.509 21.285 0.01185 0.063129 -1.627401
2008-06-25 07:03:59 51°15.993 2°40.485 21.2535 0.011748 0.062628 -1.627401
2008-06-25 07:04:04 51°16.001 2°40.46 21.2704 0.011748 0.062629 -1.627401
2008-06-25 07:04:09 51°16.009 2°40.436 21.2651 0.011748 0.062629 -1.627401
2008-06-25 07:04:14 51°16.016 2°40.412 21.2629 0.011748 0.06263 -1.627401
2008-06-25 07:04:19 51°16.024 2°40.388 21.2669 0.011748 0.06263 -1.627401
2008-06-25 07:04:24 51°16.031 2°40.364 21.2413 0.011748 0.06263 -1.627401
2008-06-25 07:04:29 51°16.039 2°40.34 21.2697 0.011748 0.062631 -1.627401
2008-06-25 07:04:34 51°16.047 2°40.316 21.2448 0.011748 0.062632 -1.627401
2008-06-25 07:04:39 51°16.055 2°40.292 21.2615 0.011748 0.062632 -1.627401
2008-06-25 07:04:44 51°16.062 2°40.267 21.2763 0.011748 0.062632 -1.627401
2008-06-25 07:04:49 51°16.071 2°40.244 21.3046 0.011748 0.062632 -1.627401
2008-06-25 07:04:54 51°16.079 2°40.22 21.274 0.011748 0.062633 -1.627401
2008-06-25 07:04:59 51°16.087 2°40.196 21.2935 0.011748 0.062633 -1.627401
2008-06-25 07:05:04 51°16.095 2°40.172 21.2626 0.011748 0.062634 -1.627401
2008-06-25 07:05:09 51°16.104 2°40.148 21.2899 0.011748 0.062635 -1.662225
2008-06-25 07:05:14 51°16.112 2°40.124 21.2589 0.011748 0.062635 -1.662225
2008-06-25 07:05:19 51°16.12 2°40.1 21.269 0.011748 0.062635 -1.662225
2008-06-25 07:05:24 51°16.128 2°40.076 21.2432 0.011748 0.062635 -1.662225
2008-06-25 07:05:29 51°16.137 2°40.053 21.2719 0.011748 0.062636 -1.627401
2008-06-25 07:05:34 51°16.145 2°40.029 21.2912 0.011748 0.062636 -1.627401
2008-06-25 07:05:39 51°16.153 2°40.006 21.2775 0.011748 0.062638 -1.627401
2008-06-25 07:05:44 51°16.161 2°39.982 21.2814 0.011748 0.062638 -1.627401
2008-06-25 07:05:49 51°16.169 2°39.958 21.2704 0.011748 0.062638 -1.627401
2008-06-25 07:05:54 51°16.177 2°39.934 21.2951 0.011748 0.062638 -1.627401
2008-06-25 07:05:59 51°16.185 2°39.91 21.3245 0.011748 0.062639 -1.627401
2008-06-25 07:06:04 51°16.193 2°39.885 21.2893 0.011748 0.06264 -1.627401
2008-06-25 07:06:09 51°16.2 2°39.861 21.2883 0.011748 0.062641 -1.627401
2008-06-25 07:06:14 51°16.208 2°39.837 21.3003 0.011748 0.062641 -1.662225
2008-06-25 07:06:19 51°16.215 2°39.812 21.322 0.011748 0.062641 -1.662225
2008-06-25 07:06:24 51°16.222 2°39.788 21.3264 0.011748 0.062642 -1.627401
2008-06-25 07:06:29 51°16.229 2°39.764 21.2775 0.011748 0.062642 -1.627401
2008-06-25 07:06:34 51°16.236 2°39.739 21.2905 0.011748 0.062642 -1.627401
2008-06-25 07:06:39 51°16.244 2°39.714 21.3236 0.011748 0.062642 -1.662225
2008-06-25 07:06:44 51°16.251 2°39.689 21.2831 0.011748 0.062643 -1.627401
2008-06-25 07:06:49 51°16.259 2°39.665 21.2904 0.011748 0.062643 -1.627401
2008-06-25 07:06:54 51°16.265 2°39.64 21.2686 0.011748 0.062643 -1.627401
2008-06-25 07:06:59 51°16.273 2°39.616 21.3041 0.011748 0.062645 -1.627401
2008-06-25 07:07:04 51°16.28 2°39.591 21.3142 0.011748 0.062644 -1.627401
2008-06-25 07:07:09 51°16.287 2°39.567 21.2731 0.011748 0.062645 -1.627401
2008-06-25 07:07:14 51°16.295 2°39.542 21.3023 0.011748 0.062645 -1.627401
2008-06-25 07:07:19 51°16.303 2°39.519 21.2462 0.011748 0.062645 -1.627401
2008-06-25 07:07:24 51°16.31 2°39.495 21.2761 0.011748 0.062646 -1.627401
2008-06-25 07:07:29 51°16.318 2°39.471 21.2621 0.011748 0.062646 -1.627401
2008-06-25 07:07:34 51°16.327 2°39.448 21.2918 0.011748 0.062647 -1.627401
2008-06-25 07:07:39 51°16.335 2°39.424 21.3096 0.011748 0.062647 -1.627401
2008-06-25 07:07:44 51°16.344 2°39.4 21.3264 0.011748 0.062648 -1.627401
2008-06-25 07:07:49 51°16.353 2°39.376 21.3468 0.011748 0.062648 -1.627401
2008-06-25 07:07:54 51°16.362 2°39.353 21.3198 0.011748 0.062648 -1.627401
2008-06-25 07:07:59 51°16.37 2°39.329 21.3424 0.011748 0.062648 -1.627401
2008-06-25 07:08:04 51°16.378 2°39.305 21.345 0.011748 0.062649 -1.627401
2008-06-25 07:08:09 51°16.386 2°39.281 21.3375 0.011748 0.062649 -1.627401
2008-06-25 07:08:14 51°16.395 2°39.258 21.3582 0.011748 0.062649 -1.627401
2008-06-25 07:08:19 51°16.403 2°39.234 21.2848 0.011748 0.062649 -1.627401
2008-06-25 07:08:24 51°16.411 2°39.21 21.3057 0.011748 0.06265 -1.627401
2008-06-25 07:08:29 51°16.419 2°39.186 21.2685 0.011748 0.06265 -1.627401
2008-06-25 07:08:34 51°16.427 2°39.162 21.3149 0.011748 0.062651 -1.627401
2008-06-25 07:08:39 51°16.435 2°39.139 21.2813 0.011748 0.062651 -1.627401
2008-06-25 07:08:44 51°16.443 2°39.115 21.3175 0.011748 0.062652 -1.662225
2008-06-25 07:08:49 51°16.452 2°39.092 21.2585 0.011748 0.062652 -1.662225
2008-06-25 07:08:54 51°16.461 2°39.069 21.2849 0.011748 0.062652 -1.627401
2008-06-25 07:08:59 51°16.47 2°39.046 21.3031 0.011748 0.062652 -1.662225
2008-06-25 07:09:04 51°16.479 2°39.023 21.2976 0.011748 0.062653 -1.627401
2008-06-25 07:09:09 51°16.488 2°39 21.3162 0.011748 0.062653 -1.662225
2008-06-25 07:09:14 51°16.497 2°38.977 21.2878 0.011748 0.062653 -1.662225
2008-06-25 07:09:19 51°16.507 2°38.954 21.3298 0.011748 0.062653 -1.662225
2008-06-25 07:09:24 51°16.515 2°38.93 21.2705 0.011748 0.062654 -1.627401
2008-06-25 07:09:29 51°16.524 2°38.907 21.3181 0.011748 0.062655 -1.627401
2008-06-25 07:09:34 51°16.532 2°38.884 21.2764 0.011748 0.062655 -1.627401
2008-06-25 07:09:39 51°16.542 2°38.861 21.3109 0.011748 0.062655 -1.627401
2008-06-25 07:09:44 51°16.55 2°38.836 21.3256 0.011748 0.062656 -1.627401
2008-06-25 07:09:49 51°16.558 2°38.813 21.3534 0.011748 0.062656 -1.627401
2008-06-25 07:09:54 51°16.567 2°38.789 21.3701 0.011748 0.062656 -1.627401
2008-06-25 07:09:59 51°16.575 2°38.765 21.2916 0.011748 0.062657 -1.627401
2008-06-25 07:10:04 51°16.583 2°38.742 21.3374 0.011748 0.062657 -1.627401
2008-06-25 07:10:09 51°16.59 2°38.718 21.2818 0.011748 0.062658 -1.627401
2008-06-25 07:10:14 51°16.598 2°38.695 21.304 0.011748 0.062658 -1.627401
2008-06-25 07:10:19 51°16.606 2°38.67 21.2528 0.011748 0.062658 -1.627401
2008-06-25 07:10:24 51°16.615 2°38.646 21.3059 0.011748 0.06266 -1.627401
2008-06-25 07:10:29 51°16.623 2°38.622 21.2679 0.011748 0.062659 -1.627401
2008-06-25 07:10:34 51°16.632 2°38.598 21.2968 0.011748 0.06266 -1.627401
2008-06-25 07:10:39 51°16.639 2°38.574 21.2671 0.011748 0.062661 -1.627401
2008-06-25 07:10:44 51°16.648 2°38.55 21.2827 0.011748 0.062661 -1.627401
2008-06-25 07:10:49 51°16.656 2°38.526 21.3081 0.011748 0.062661 -1.627401
2008-06-25 07:10:54 51°16.664 2°38.503 21.3226 0.011748 0.062661 -1.627401
2008-06-25 07:10:59 51°16.672 2°38.479 21.2957 0.011748 0.062662 -1.627401
2008-06-25 07:11:04 51°16.68 2°38.454 21.2923 0.011748 0.062662 -1.627401
2008-06-25 07:11:09 51°16.688 2°38.43 21.2717 0.011748 0.062662 -1.627401
2008-06-25 07:11:14 51°16.698 2°38.409 21.2797 0.011748 0.062662 -1.627401
2008-06-25 07:11:19 51°16.707 2°38.385 21.3003 0.011748 0.062662 -1.627401
2008-06-25 07:11:24 51°16.715 2°38.362 21.3006 0.011748 0.062663 -1.627401
2008-06-25 07:11:29 51°16.724 2°38.339 21.3252 0.011748 0.062662 -1.627401
2008-06-25 07:11:34 51°16.733 2°38.315 21.2838 0.011748 0.062663 -1.627401
2008-06-25 07:11:39 51°16.743 2°38.292 21.3182 0.011748 0.062663 -1.627401
2008-06-25 07:11:44 51°16.753 2°38.268 21.2706 0.011748 0.062664 -1.627401
2008-06-25 07:11:49 51°16.762 2°38.244 21.3064 0.011748 0.062664 -1.627401
2008-06-25 07:11:54 51°16.772 2°38.22 21.3243 0.011748 0.062664 -1.627401
2008-06-25 07:11:59 51°16.781 2°38.197 21.3202 0.011748 0.062665 -1.627401
2008-06-25 07:12:04 51°16.79 2°38.173 21.334 0.011748 0.062665 -1.627401
2008-06-25 07:12:09 51°16.799 2°38.149 21.3544 0.011748 0.062665 -1.627401
2008-06-25 07:12:14 51°16.808 2°38.126 21.3645 0.011748 0.062665 -1.627401
2008-06-25 07:12:19 51°16.817 2°38.102 21.3762 0.011748 0.062665 -1.627401
2008-06-25 07:12:24 51°16.825 2°38.078 21.3261 0.011748 0.062665 -1.627401
2008-06-25 07:12:29 51°16.833 2°38.054 21.3412 0.011748 0.062665 -1.662225
2008-06-25 07:12:34 51°16.842 2°38.03 21.3663 0.011748 0.062667 -1.627401
2008-06-25 07:12:39 51°16.85 2°38.006 21.3026 0.011748 0.062667 -1.627401
2008-06-25 07:12:44 51°16.859 2°37.983 21.3237 0.011748 0.062667 -1.627401
2008-06-25 07:12:49 51°16.868 2°37.959 21.3279 0.011748 0.062667 -1.627401
2008-06-25 07:12:54 51°16.877 2°37.935 21.3481 0.011748 0.062668 -1.627401
2008-06-25 07:12:59 51°16.885 2°37.911 21.2994 0.011748 0.062668 -1.662225
2008-06-25 07:13:04 51°16.894 2°37.889 21.325 0.011748 0.062668 -1.627401
2008-06-25 07:13:09 51°16.903 2°37.865 21.2854 0.01185 0.063171 -1.662225
2008-06-25 07:13:14 51°16.913 2°37.842 21.3383 0.011748 0.062668 -1.627401
2008-06-25 07:13:19 51°16.922 2°37.818 21.3072 0.011748 0.062668 -1.627401
2008-06-25 07:13:24 51°16.931 2°37.796 21.3533 0.011748 0.062669 -1.662225
2008-06-25 07:13:29 51°16.94 2°37.772 21.3335 0.011748 0.062669 -1.627401
2008-06-25 07:13:34 51°16.949 2°37.75 21.3661 0.011748 0.06267 -1.627401
2008-06-25 07:13:39 51°16.957 2°37.727 21.3345 0.011748 0.06267 -1.627401
2008-06-25 07:13:44 51°16.967 2°37.704 21.3716 0.011748 0.06267 -1.627401
2008-06-25 07:13:49 51°16.975 2°37.68 21.2805 0.011748 0.06267 -1.627401
2008-06-25 07:13:54 51°16.984 2°37.657 21.3235 0.011748 0.062672 -1.627401
2008-06-25 07:13:59 51°16.993 2°37.634 21.3552 0.011748 0.062671 -1.627401
2008-06-25 07:14:04 51°17.002 2°37.611 21.3522 0.011748 0.062672 -1.662225
2008-06-25 07:14:09 51°17.011 2°37.588 21.3815 0.011748 0.062672 -1.627401
2008-06-25 07:14:14 51°17.02 2°37.564 21.3765 0.011748 0.062672 -1.627401
2008-06-25 07:14:19 51°17.029 2°37.542 21.4076 0.011748 0.062672 -1.627401
2008-06-25 07:14:24 51°17.037 2°37.518 21.3028 0.011748 0.062672 -1.627401
2008-06-25 07:14:29 51°17.045 2°37.495 21.3301 0.011748 0.062673 -1.627401
2008-06-25 07:14:34 51°17.054 2°37.471 21.3144 0.011748 0.062673 -1.627401
2008-06-25 07:14:39 51°17.062 2°37.448 21.3537 0.011748 0.062673 -1.627401
2008-06-25 07:14:44 51°17.071 2°37.425 21.354 0.011748 0.062673 -1.627401
2008-06-25 07:14:49 51°17.08 2°37.402 21.3374 0.011748 0.062673 -1.627401
2008-06-25 07:14:54 51°17.089 2°37.379 21.3415 0.011748 0.062674 -1.627401
2008-06-25 07:14:59 51°17.098 2°37.356 21.3352 0.011748 0.062674 -1.627401
2008-06-25 07:15:04 51°17.106 2°37.333 21.3553 0.011748 0.062675 -1.662225
2008-06-25 07:15:09 51°17.115 2°37.309 21.3326 0.011748 0.062675 -1.627401
2008-06-25 07:15:14 51°17.124 2°37.286 21.3123 0.011748 0.062675 -1.627401
2008-06-25 07:15:19 51°17.133 2°37.263 21.3437 0.011748 0.062675 -1.627401
2008-06-25 07:15:24 51°17.142 2°37.24 21.3548 0.011748 0.062675 -1.627401
2008-06-25 07:15:29 51°17.151 2°37.217 21.3226 0.011748 0.062675 -1.627401
2008-06-25 07:15:34 51°17.161 2°37.194 21.3611 0.011748 0.062676 -1.627401
2008-06-25 07:15:39 51°17.169 2°37.171 21.3189 0.011748 0.062676 -1.627401
2008-06-25 07:15:44 51°17.179 2°37.148 21.3508 0.011748 0.062676 -1.627401
2008-06-25 07:15:49 51°17.187 2°37.124 21.3348 0.011748 0.062676 -1.627401
2008-06-25 07:15:54 51°17.196 2°37.101 21.3637 0.011748 0.062677 -1.662225
2008-06-25 07:15:59 51°17.204 2°37.078 21.3715 0.011748 0.062677 -1.627401
2008-06-25 07:16:04 51°17.213 2°37.054 21.3484 0.011748 0.062678 -1.627401
2008-06-25 07:16:09 51°17.221 2°37.031 21.3672 0.011748 0.062678 -1.627401
2008-06-25 07:16:14 51°17.229 2°37.007 21.3797 0.011748 0.062678 -1.627401
2008-06-25 07:16:19 51°17.237 2°36.983 21.3928 0.011748 0.062678 -1.627401
2008-06-25 07:16:24 51°17.245 2°36.96 21.3141 0.011748 0.062678 -1.627401
2008-06-25 07:16:29 51°17.253 2°36.936 21.3443 0.011748 0.062678 -1.627401
2008-06-25 07:16:34 51°17.262 2°36.913 21.3587 0.011748 0.062678 -1.627401
2008-06-25 07:16:39 51°17.271 2°36.889 21.3479 0.011748 0.062678 -1.627401
2008-06-25 07:16:44 51°17.279 2°36.866 21.3492 0.011748 0.062678 -1.627401
2008-06-25 07:16:49 51°17.288 2°36.842 21.3205 0.011748 0.062678 -1.627401
2008-06-25 07:16:54 51°17.297 2°36.819 21.3483 0.011748 0.062679 -1.627401
2008-06-25 07:16:59 51°17.306 2°36.795 21.3667 0.011748 0.062678 -1.627401
2008-06-25 07:17:04 51°17.315 2°36.772 21.3753 0.011748 0.062678 -1.627401
2008-06-25 07:17:09 51°17.324 2°36.749 21.4055 0.011748 0.062678 -1.627401
2008-06-25 07:17:14 51°17.333 2°36.725 21.4023 0.011748 0.062679 -1.627401
2008-06-25 07:17:19 51°17.342 2°36.702 21.3822 0.011748 0.062679 -1.627401
2008-06-25 07:17:24 51°17.35 2°36.678 21.3774 0.011748 0.062679 -1.662225
2008-06-25 07:17:29 51°17.358 2°36.654 21.3944 0.011748 0.06268 -1.627401
2008-06-25 07:17:34 51°17.366 2°36.63 21.3708 0.011748 0.062679 -1.627401
2008-06-25 07:17:39 51°17.374 2°36.606 21.353 0.011748 0.06268 -1.627401
2008-06-25 07:17:44 51°17.381 2°36.581 21.3569 0.011748 0.06268 -1.627401
2008-06-25 07:17:49 51°17.389 2°36.557 21.3687 0.011748 0.06268 -1.627401
2008-06-25 07:17:54 51°17.397 2°36.533 21.3894 0.011748 0.06268 -1.627401
2008-06-25 07:17:59 51°17.405 2°36.509 21.3948 0.011748 0.06268 -1.627401
2008-06-25 07:18:04 51°17.412 2°36.484 21.3963 0.011748 0.06268 -1.627401
2008-06-25 07:18:09 51°17.42 2°36.46 21.3791 0.011748 0.06268 -1.627401
2008-06-25 07:18:14 51°17.428 2°36.436 21.3555 0.011748 0.06268 -1.627401
2008-06-25 07:18:19 51°17.435 2°36.411 21.3659 0.011748 0.06268 -1.627401
2008-06-25 07:18:24 51°17.442 2°36.387 21.3768 0.011748 0.062681 -1.627401
2008-06-25 07:18:29 51°17.45 2°36.362 21.4026 0.011748 0.062681 -1.627401
2008-06-25 07:18:34 51°17.457 2°36.338 21.3719 0.011748 0.062681 -1.662225
2008-06-25 07:18:39 51°17.464 2°36.313 21.3797 0.011748 0.062681 -1.627401
2008-06-25 07:18:44 51°17.472 2°36.288 21.3607 0.011748 0.062681 -1.627401
2008-06-25 07:18:49 51°17.479 2°36.264 21.3422 0.011748 0.062681 -1.627401
2008-06-25 07:18:54 51°17.486 2°36.24 21.3346 0.011748 0.062681 -1.627401
2008-06-25 07:18:59 51°17.493 2°36.215 21.3536 0.011748 0.062681 -1.662225
2008-06-25 07:19:04 51°17.501 2°36.191 21.3659 0.011748 0.062681 -1.627401
2008-06-25 07:19:09 51°17.508 2°36.166 21.3847 0.011748 0.062681 -1.627401
2008-06-25 07:19:14 51°17.516 2°36.142 21.4158 0.011748 0.062681 -1.627401
2008-06-25 07:19:19 51°17.523 2°36.117 21.3342 0.011748 0.062681 -1.627401
2008-06-25 07:19:24 51°17.531 2°36.093 21.3333 0.011748 0.062681 -1.627401
2008-06-25 07:19:29 51°17.538 2°36.069 21.3625 0.011748 0.062681 -1.627401
2008-06-25 07:19:34 51°17.546 2°36.044 21.3597 0.011748 0.062681 -1.627401
2008-06-25 07:19:39 51°17.553 2°36.02 21.3288 0.011748 0.062681 -1.627401
2008-06-25 07:19:44 51°17.561 2°35.996 21.3222 0.011748 0.062681 -1.627401
2008-06-25 07:19:49 51°17.569 2°35.972 21.3586 0.011748 0.062681 -1.627401
2008-06-25 07:19:54 51°17.577 2°35.948 21.3639 0.011748 0.062681 -1.627401
2008-06-25 07:19:59 51°17.585 2°35.924 21.3407 0.011748 0.062681 -1.627401
2008-06-25 07:20:04 51°17.593 2°35.9 21.355 0.011748 0.062681 -1.627401
2008-06-25 07:20:09 51°17.601 2°35.876 21.368 0.011748 0.062681 -1.627401
2008-06-25 07:20:14 51°17.61 2°35.853 21.3922 0.011748 0.062681 -1.627401
2008-06-25 07:20:19 51°17.618 2°35.829 21.4174 0.011748 0.062681 -1.627401
2008-06-25 07:20:24 51°17.625 2°35.804 21.4084 0.011748 0.062682 -1.627401
2008-06-25 07:20:29 51°17.633 2°35.781 21.4287 0.011748 0.062683 -1.662225
2008-06-25 07:20:34 51°17.641 2°35.756 21.4229 0.011748 0.062683 -1.627401
2008-06-25 07:20:39 51°17.648 2°35.732 21.4237 0.011748 0.062683 -1.662225
2008-06-25 07:20:44 51°17.655 2°35.708 21.4448 0.011748 0.062683 -1.627401
2008-06-25 07:20:49 51°17.663 2°35.684 21.3596 0.011748 0.062683 -1.627401
2008-06-25 07:20:54 51°17.67 2°35.66 21.375 0.011748 0.062683 -1.627401
2008-06-25 07:20:59 51°17.678 2°35.636 21.4048 0.011748 0.062683 -1.627401
2008-06-25 07:21:04 51°17.685 2°35.611 21.3555 0.011748 0.062684 -1.627401
2008-06-25 07:21:09 51°17.693 2°35.588 21.401 0.011748 0.062684 -1.627401
2008-06-25 07:21:14 51°17.7 2°35.563 21.3356 0.011748 0.062685 -1.627401
2008-06-25 07:21:19 51°17.707 2°35.539 21.3733 0.011748 0.062685 -1.627401
2008-06-25 07:21:24 51°17.715 2°35.514 21.3915 0.011748 0.062684 -1.627401
2008-06-25 07:21:29 51°17.722 2°35.49 21.4039 0.011748 0.062685 -1.662225
2008-06-25 07:21:34 51°17.73 2°35.466 21.425 0.011748 0.062685 -1.627401
2008-06-25 07:21:39 51°17.738 2°35.441 21.3528 0.011748 0.062685 -1.627401
2008-06-25 07:21:44 51°17.746 2°35.417 21.3824 0.011748 0.062685 -1.627401
2008-06-25 07:21:49 51°17.754 2°35.393 21.4096 0.011748 0.062685 -1.627401
2008-06-25 07:21:54 51°17.761 2°35.369 21.3856 0.011748 0.062685 -1.627401
2008-06-25 07:21:59 51°17.769 2°35.345 21.3842 0.011748 0.062686 -1.627401
2008-06-25 07:22:04 51°17.777 2°35.321 21.3864 0.011748 0.062686 -1.627401
2008-06-25 07:22:09 51°17.785 2°35.297 21.3824 0.011748 0.062687 -1.627401
2008-06-25 07:22:14 51°17.793 2°35.273 21.4079 0.011748 0.062687 -1.627401
2008-06-25 07:22:19 51°17.8 2°35.25 21.3844 0.011748 0.062687 -1.627401
2008-06-25 07:22:24 51°17.808 2°35.226 21.4122 0.011748 0.062687 -1.627401
2008-06-25 07:22:29 51°17.816 2°35.202 21.4257 0.011748 0.062688 -1.627401
2008-06-25 07:22:34 51°17.823 2°35.178 21.4061 0.011748 0.062688 -1.627401
2008-06-25 07:22:39 51°17.831 2°35.154 21.3784 0.011748 0.062688 -1.627401
2008-06-25 07:22:44 51°17.839 2°35.13 21.3468 0.011748 0.062688 -1.627401
2008-06-25 07:22:49 51°17.847 2°35.106 21.3725 0.011748 0.062688 -1.627401
2008-06-25 07:22:54 51°17.855 2°35.082 21.3798 0.011748 0.062688 -1.627401
2008-06-25 07:22:59 51°17.864 2°35.059 21.368 0.011748 0.062689 -1.627401
2008-06-25 07:23:04 51°17.872 2°35.035 21.393 0.011748 0.06269 -1.627401
2008-06-25 07:23:09 51°17.88 2°35.011 21.3702 0.011748 0.06269 -1.627401
2008-06-25 07:23:14 51°17.888 2°34.989 21.4043 0.011748 0.062691 -1.662225
2008-06-25 07:23:19 51°17.895 2°34.965 21.4041 0.011748 0.062691 -1.662225
2008-06-25 07:23:24 51°17.903 2°34.943 21.4274 0.011748 0.062691 -1.627401
2008-06-25 07:23:29 51°17.909 2°34.919 21.4318 0.011748 0.062692 -1.627401
2008-06-25 07:23:34 51°17.915 2°34.896 21.4332 0.011748 0.062692 -1.627401
2008-06-25 07:23:39 51°17.921 2°34.873 21.4436 0.011748 0.062692 -1.627401
2008-06-25 07:23:44 51°17.926 2°34.85 21.4644 0.011748 0.062692 -1.627401
2008-06-25 07:23:49 51°17.931 2°34.827 21.4774 0.011748 0.062692 -1.627401
2008-06-25 07:23:54 51°17.936 2°34.804 21.3737 0.011748 0.062693 -1.627401
2008-06-25 07:23:59 51°17.941 2°34.781 21.4242 0.011748 0.062694 -1.627401
2008-06-25 07:24:04 51°17.945 2°34.757 21.4346 0.011748 0.062694 -1.627401
2008-06-25 07:24:09 51°17.95 2°34.734 21.4699 0.011748 0.062694 -1.627401
2008-06-25 07:24:14 51°17.953 2°34.711 21.4695 0.011748 0.062695 -1.627401
2008-06-25 07:24:19 51°17.955 2°34.687 21.4669 0.011748 0.062695 -1.627401
2008-06-25 07:24:24 51°17.958 2°34.663 21.4953 0.011748 0.062695 -1.627401
2008-06-25 07:24:29 51°17.96 2°34.639 21.4864 0.011748 0.062695 -1.627401
2008-06-25 07:24:35 51°17.962 2°34.611 21.401 0.011748 0.062695 -1.627401
2008-06-25 07:24:40 51°17.964 2°34.589 21.3938 0.011748 0.062696 -1.662225
2008-06-25 07:24:44 51°17.965 2°34.571 21.3929 0.011748 0.062696 -1.627401
2008-06-25 07:24:50 51°17.967 2°34.546 21.4244 0.011748 0.062696 -1.627401
2008-06-25 07:24:55 51°17.968 2°34.526 21.4505 0.011748 0.062697 -1.627401
2008-06-25 07:24:59 51°17.969 2°34.51 21.4604 0.011748 0.062697 -1.627401
2008-06-25 07:25:04 51°17.97 2°34.491 21.4687 0.011748 0.062698 -1.627401
2008-06-25 07:25:09 51°17.971 2°34.471 21.4885 0.011748 0.062698 -1.627401
2008-06-25 07:25:14 51°17.972 2°34.452 21.4234 0.011748 0.062698 -1.627401
2008-06-25 07:25:19 51°17.973 2°34.434 21.4411 0.011748 0.062698 -1.627401
2008-06-25 07:25:24 51°17.974 2°34.417 21.4477 0.011748 0.062698 -1.627401
2008-06-25 07:25:29 51°17.975 2°34.401 21.4426 0.011748 0.062698 -1.627401
2008-06-25 07:25:34 51°17.976 2°34.386 21.4795 0.011748 0.062698 -1.627401
2008-06-25 07:25:39 51°17.977 2°34.371 21.4791 0.011748 0.062699 -1.627401
2008-06-25 07:25:44 51°17.978 2°34.357 21.4991 0.011748 0.062699 -1.627401
2008-06-25 07:25:49 51°17.979 2°34.344 21.4881 0.011748 0.062699 -1.627401
2008-06-25 07:25:54 51°17.98 2°34.331 21.5116 0.011748 0.0627 -1.627401
2008-06-25 07:26:00 51°17.981 2°34.316 21.5072 0.011748 0.062701 -1.627401
2008-06-25 07:26:04 51°17.982 2°34.306 21.5222 0.011748 0.062701 -1.627401
2008-06-25 07:26:09 51°17.982 2°34.294 21.5222 0.011748 0.062702 -1.627401
2008-06-25 07:26:14 51°17.983 2°34.283 21.5289 0.011748 0.062702 -1.627401
2008-06-25 07:26:19 51°17.984 2°34.273 21.5236 0.011748 0.062702 -1.627401
2008-06-25 07:26:24 51°17.985 2°34.263 21.5364 0.011748 0.062702 -1.627401
2008-06-25 07:26:29 51°17.985 2°34.253 21.5287 0.011748 0.062702 -1.627401
2008-06-25 07:26:34 51°17.985 2°34.244 21.5428 0.011748 0.062703 -1.627401
2008-06-25 07:26:40 51°17.985 2°34.234 21.5245 0.011748 0.062704 -1.627401
2008-06-25 07:26:44 51°17.985 2°34.227 21.5367 0.011748 0.062704 -1.627401
2008-06-25 07:26:49 51°17.984 2°34.22 21.5335 0.011748 0.062704 -1.627401
2008-06-25 07:26:54 51°17.984 2°34.213 21.5466 0.011748 0.062705 -1.627401
2008-06-25 07:26:59 51°17.982 2°34.207 21.5374 0.011748 0.062705 -1.627401
2008-06-25 07:27:04 51°17.981 2°34.202 21.541 0.011748 0.062706 -1.627401
2008-06-25 07:27:09 51°17.98 2°34.197 21.5388 0.011748 0.062706 -1.627401
2008-06-25 07:27:14 51°17.979 2°34.192 21.5508 0.011748 0.062706 -1.627401
2008-06-25 07:27:19 51°17.977 2°34.188 21.5374 0.011748 0.062706 -1.627401
2008-06-25 07:27:24 51°17.975 2°34.183 21.5581 0.011748 0.062707 -1.627401
2008-06-25 07:27:29 51°17.974 2°34.18 21.5472 0.011748 0.062707 -1.627401
2008-06-25 07:27:34 51°17.972 2°34.176 21.5596 0.011748 0.062708 -1.627401
2008-06-25 07:27:39 51°17.97 2°34.174 21.5443 0.011748 0.062708 -1.627401
2008-06-25 07:27:44 51°17.969 2°34.17 21.5585 0.011748 0.062708 -1.627401
2008-06-25 07:27:49 51°17.967 2°34.168 21.5495 0.011748 0.062708 -1.627401
2008-06-25 07:27:54 51°17.966 2°34.165 21.5575 0.011748 0.062708 -1.627401
2008-06-25 07:27:59 51°17.964 2°34.163 21.5557 0.011748 0.062708 -1.627401
2008-06-25 07:28:04 51°17.963 2°34.16 21.5561 0.011748 0.062708 -1.627401
2008-06-25 07:28:09 51°17.961 2°34.158 21.5552 0.011748 0.062708 -1.627401
2008-06-25 07:28:14 51°17.96 2°34.155 21.5601 0.011748 0.062708 -1.627401
2008-06-25 07:28:19 51°17.958 2°34.153 21.5616 0.011748 0.062708 -1.627401
2008-06-25 07:28:24 51°17.957 2°34.151 21.5584 0.011748 0.062708 -1.627401
2008-06-25 07:28:29 51°17.956 2°34.148 21.5637 0.011748 0.062708 -1.627401
2008-06-25 07:28:34 51°17.955 2°34.146 21.563 0.011748 0.062709 -1.627401
2008-06-25 07:28:40 51°17.954 2°34.143 21.5674 0.011748 0.062709 -1.627401
2008-06-25 07:28:44 51°17.953 2°34.141 21.5622 0.011748 0.062709 -1.627401
2008-06-25 07:28:49 51°17.952 2°34.138 21.5742 0.011748 0.062709 -1.627401
2008-06-25 07:28:54 51°17.951 2°34.136 21.5671 0.011748 0.062709 -1.627401
2008-06-25 07:29:00 51°17.95 2°34.132 21.5753 0.011748 0.062709 -1.627401
2008-06-25 07:29:04 51°17.95 2°34.13 21.5658 0.011748 0.062709 -1.662225
2008-06-25 07:29:09 51°17.949 2°34.127 21.5818 0.011748 0.06271 -1.627401
2008-06-25 07:29:14 51°17.948 2°34.125 21.5747 0.011748 0.06271 -1.627401
2008-06-25 07:29:19 51°17.947 2°34.122 21.5787 0.011748 0.06271 -1.627401
2008-06-25 07:29:24 51°17.947 2°34.119 21.5797 0.011748 0.06271 -1.627401
2008-06-25 07:29:29 51°17.946 2°34.116 21.584 0.011748 0.062711 -1.627401
2008-06-25 07:29:34 51°17.946 2°34.113 21.5822 0.011748 0.062711 -1.627401
2008-06-25 07:29:39 51°17.945 2°34.109 21.5833 0.011748 0.062711 -1.627401
2008-06-25 07:29:44 51°17.944 2°34.106 21.5794 0.011748 0.062712 -1.627401
2008-06-25 07:29:49 51°17.944 2°34.103 21.5823 0.011748 0.062712 -1.627401
2008-06-25 07:29:54 51°17.943 2°34.1 21.5858 0.011748 0.062712 -1.627401
2008-06-25 07:29:59 51°17.943 2°34.096 21.5801 0.011748 0.062712 -1.627401
2008-06-25 07:30:04 51°17.942 2°34.093 21.5893 0.011748 0.062712 -1.627401